Time,TemperatureF,DewpointF,PressureIn,WindDirection,WindDirectionDegrees,WindSpeedMPH,WindSpeedGustMPH,Humidity,HourlyPrecipIn,Conditions,Clouds,dailyrainin,SolarRadiationWatts/m^2,SoftwareType,DateUTC
2013-02-05 00:00:00,38.9,21.0,29.89,SW,222,1.1,1.1,48,0.00,,,0.00,0,TxWx,2013-02-05 05:00:00,
2013-02-05 00:05:00,38.7,20.6,29.89,SSW,202,1.9,1.9,47,0.00,,,0.00,0,TxWx,2013-02-05 05:05:00,
2013-02-05 00:10:00,38.6,20.5,29.89,South,182,1.9,1.9,47,0.00,,,0.00,0,TxWx,2013-02-05 05:10:00,
2013-02-05 00:15:00,38.4,21.3,29.89,SSE,156,2.3,2.3,49,0.00,,,0.00,0,TxWx,2013-02-05 05:15:00,
2013-02-05 00:20:00,38.2,20.6,29.89,South,173,1.9,2.0,48,0.00,,,0.00,0,TxWx,2013-02-05 05:20:00,
2013-02-05 00:21:00,38.3,20.5,29.89,SSE,162,1.9,2.0,48,0.00,,,0.00,0,TxWx,2013-02-05 05:21:00,
2013-02-05 00:25:00,38.2,20.9,29.89,SSW,195,1.5,2.0,49,0.00,,,0.00,0,TxWx,2013-02-05 05:25:00,
2013-02-05 00:26:00,38.1,20.6,29.89,South,170,1.5,1.5,48,0.00,,,0.00,0,TxWx,2013-02-05 05:26:00,
2013-02-05 00:30:00,38.1,20.8,29.89,SW,234,1.5,1.5,49,0.00,,,0.00,0,TxWx,2013-02-05 05:30:00,
2013-02-05 00:31:00,38.2,20.6,29.89,SW,221,1.5,1.5,48,0.00,,,0.00,0,TxWx,2013-02-05 05:31:00,
2013-02-05 00:35:00,38.2,20.8,29.89,SSE,164,1.1,1.1,49,0.00,,,0.00,0,TxWx,2013-02-05 05:35:00,
2013-02-05 00:36:00,38.2,20.8,29.89,SSW,212,1.1,1.1,49,0.00,,,0.00,0,TxWx,2013-02-05 05:36:00,
2013-02-05 00:40:00,38.0,20.5,29.88,South,186,0.7,0.0,48,0.00,,,0.00,0,TxWx,2013-02-05 05:40:00,
2013-02-05 00:41:00,38.0,20.5,29.88,SSW,210,1.1,1.1,48,0.00,,,0.00,0,TxWx,2013-02-05 05:41:00,
2013-02-05 00:46:00,37.7,20.8,29.88,South,187,0.7,0.0,50,0.00,,,0.00,0,TxWx,2013-02-05 05:46:00,
2013-02-05 00:51:00,37.6,20.6,29.88,SSW,192,1.9,1.9,49,0.00,,,0.00,0,TxWx,2013-02-05 05:51:00,
2013-02-05 00:56:00,37.9,20.4,29.88,SSE,167,0.7,1.0,48,0.00,,,0.00,0,TxWx,2013-02-05 05:56:00,
2013-02-05 01:01:00,37.8,20.3,29.88,SSW,195,1.1,1.1,48,0.00,,,0.00,0,TxWx,2013-02-05 06:01:00,
2013-02-05 01:06:00,37.5,20.3,29.88,South,186,1.1,1.1,49,0.00,,,0.00,0,TxWx,2013-02-05 06:06:00,
2013-02-05 01:07:00,37.5,20.2,29.88,SSE,167,1.5,1.5,49,0.00,,,0.00,0,TxWx,2013-02-05 06:07:00,
2013-02-05 01:11:00,37.3,20.4,29.88,SW,218,1.5,1.5,50,0.00,,,0.00,0,TxWx,2013-02-05 06:11:00,
2013-02-05 01:12:00,37.3,20.4,29.88,SSW,208,1.1,1.1,50,0.00,,,0.00,0,TxWx,2013-02-05 06:12:00,
2013-02-05 01:16:00,37.1,20.5,29.88,South,190,1.5,1.5,50,0.00,,,0.00,0,TxWx,2013-02-05 06:16:00,
2013-02-05 01:17:00,37.1,20.5,29.88,South,188,1.1,1.1,50,0.00,,,0.00,0,TxWx,2013-02-05 06:17:00,
2013-02-05 01:21:00,36.8,20.4,29.88,SW,214,0.7,0.0,51,0.00,,,0.00,0,TxWx,2013-02-05 06:21:00,
2013-02-05 01:22:00,36.8,20.4,29.88,SSW,201,0.3,0.0,51,0.00,,,0.00,0,TxWx,2013-02-05 06:22:00,
2013-02-05 01:26:00,36.4,21.0,29.88,South,189,1.5,1.5,53,0.00,,,0.00,0,TxWx,2013-02-05 06:26:00,
2013-02-05 01:27:00,36.4,21.0,29.88,South,175,1.1,1.1,53,0.00,,,0.00,0,TxWx,2013-02-05 06:27:00,
2013-02-05 01:31:00,36.3,20.8,29.88,South,189,0.7,0.0,52,0.00,,,0.00,0,TxWx,2013-02-05 06:31:00,
2013-02-05 01:32:00,36.3,20.8,29.88,South,176,1.1,1.1,52,0.00,,,0.00,0,TxWx,2013-02-05 06:32:00,
2013-02-05 01:37:00,36.2,20.8,29.88,SSW,197,0.7,1.0,53,0.00,,,0.00,0,TxWx,2013-02-05 06:37:00,
2013-02-05 01:42:00,36.0,21.1,29.88,SSE,164,1.9,1.9,54,0.00,,,0.00,0,TxWx,2013-02-05 06:42:00,
2013-02-05 01:43:00,36.0,20.5,29.88,South,184,0.3,0.0,52,0.00,,,0.00,0,TxWx,2013-02-05 06:43:00,
2013-02-05 01:47:00,36.0,20.8,29.88,SW,219,0.3,0.0,53,0.00,,,0.00,0,TxWx,2013-02-05 06:47:00,
2013-02-05 01:49:00,35.9,20.6,29.88,South,182,0.3,0.0,53,0.00,,,0.00,0,TxWx,2013-02-05 06:49:00,
2013-02-05 01:52:00,35.9,20.9,29.88,SSW,195,1.1,1.1,54,0.00,,,0.00,0,TxWx,2013-02-05 06:52:00,
2013-02-05 01:54:00,35.9,20.6,29.88,South,178,0.7,1.0,53,0.00,,,0.00,0,TxWx,2013-02-05 06:54:00,
2013-02-05 01:57:00,35.7,20.5,29.88,South,188,0.3,0.0,53,0.00,,,0.00,0,TxWx,2013-02-05 06:57:00,
2013-02-05 01:58:00,35.7,20.5,29.88,South,188,0.3,0.0,53,0.00,,,0.00,0,TxWx,2013-02-05 06:58:00,
2013-02-05 01:59:00,35.6,20.7,29.88,SSW,204,0.7,0.0,54,0.00,,,0.00,0,TxWx,2013-02-05 06:59:00,
2013-02-05 02:02:00,35.1,21.3,29.88,SSW,194,1.1,1.1,56,0.00,,,0.00,0,TxWx,2013-02-05 07:02:00,
2013-02-05 02:03:00,35.1,21.3,29.88,South,171,1.5,1.5,56,0.00,,,0.00,0,TxWx,2013-02-05 07:03:00,
2013-02-05 02:04:00,35.2,21.0,29.88,SW,235,1.9,1.9,55,0.00,,,0.00,0,TxWx,2013-02-05 07:04:00,
2013-02-05 02:07:00,35.3,20.7,29.87,SSW,211,1.9,2.0,54,0.00,,,0.00,0,TxWx,2013-02-05 07:07:00,
2013-02-05 02:08:00,35.3,20.7,29.87,South,188,1.1,1.1,54,0.00,,,0.00,0,TxWx,2013-02-05 07:08:00,
2013-02-05 02:09:00,34.9,21.6,29.87,South,173,1.1,1.1,57,0.00,,,0.00,0,TxWx,2013-02-05 07:09:00,
2013-02-05 02:13:00,35.0,21.0,29.87,South,190,0.7,0.0,56,0.00,,,0.00,0,TxWx,2013-02-05 07:13:00,
2013-02-05 02:14:00,35.2,20.8,29.87,SSW,195,0.3,0.0,55,0.00,,,0.00,0,TxWx,2013-02-05 07:14:00,
2013-02-05 02:18:00,35.4,21.0,29.87,SSW,200,0.0,0.0,55,0.00,,,0.00,0,TxWx,2013-02-05 07:18:00,
2013-02-05 02:19:00,35.4,20.8,29.87,SSE,164,0.0,0.0,54,0.00,,,0.00,0,TxWx,2013-02-05 07:19:00,
2013-02-05 02:23:00,35.5,20.8,29.87,SW,220,1.1,1.1,54,0.00,,,0.00,0,TxWx,2013-02-05 07:23:00,
2013-02-05 02:24:00,35.3,21.1,29.87,WSW,239,1.1,1.1,55,0.00,,,0.00,0,TxWx,2013-02-05 07:24:00,
2013-02-05 02:25:00,35.1,21.3,29.87,South,182,1.5,1.5,56,0.00,,,0.00,0,TxWx,2013-02-05 07:25:00,
2013-02-05 02:28:00,35.2,21.0,29.87,South,186,0.7,0.0,55,0.00,,,0.00,0,TxWx,2013-02-05 07:28:00,
2013-02-05 02:29:00,35.2,20.9,29.87,South,185,0.3,0.0,55,0.00,,,0.00,0,TxWx,2013-02-05 07:29:00,
2013-02-05 02:30:00,35.2,20.8,29.87,SW,223,0.3,0.0,55,0.00,,,0.00,0,TxWx,2013-02-05 07:30:00,
2013-02-05 02:33:00,35.0,21.4,29.87,South,188,1.1,1.1,57,0.00,,,0.00,0,TxWx,2013-02-05 07:33:00,
2013-02-05 02:34:00,34.9,21.4,29.87,South,174,1.1,1.1,57,0.00,,,0.00,0,TxWx,2013-02-05 07:34:00,
2013-02-05 02:35:00,34.8,21.3,29.87,SSE,165,1.5,1.5,57,0.00,,,0.00,0,TxWx,2013-02-05 07:35:00,
2013-02-05 02:38:00,35.0,21.2,29.87,SW,228,0.0,0.0,56,0.00,,,0.00,0,TxWx,2013-02-05 07:38:00,
2013-02-05 02:39:00,35.0,21.2,29.87,East,89,0.0,0.0,56,0.00,,,0.00,0,TxWx,2013-02-05 07:39:00,
2013-02-05 02:40:00,35.1,20.9,29.87,East,89,0.0,0.0,55,0.00,,,0.00,0,TxWx,2013-02-05 07:40:00,
2013-02-05 02:43:00,35.0,20.6,29.87,SSE,159,0.7,0.0,55,0.00,,,0.00,0,TxWx,2013-02-05 07:43:00,
2013-02-05 02:44:00,35.0,20.6,29.87,SW,217,0.3,0.0,55,0.00,,,0.00,0,TxWx,2013-02-05 07:44:00,
2013-02-05 02:45:00,35.0,20.6,29.87,SSE,168,0.7,0.0,55,0.00,,,0.00,0,TxWx,2013-02-05 07:45:00,
2013-02-05 02:48:00,34.9,21.3,29.87,SW,220,1.1,1.1,57,0.00,,,0.00,0,TxWx,2013-02-05 07:48:00,
2013-02-05 02:49:00,34.8,21.2,29.87,SSW,210,0.7,0.0,57,0.00,,,0.00,0,TxWx,2013-02-05 07:49:00,
2013-02-05 02:50:00,34.8,21.2,29.87,SSW,210,0.3,0.0,57,0.00,,,0.00,0,TxWx,2013-02-05 07:50:00,
2013-02-05 02:53:00,34.9,21.1,29.87,SSE,167,0.7,1.0,56,0.00,,,0.00,0,TxWx,2013-02-05 07:53:00,
2013-02-05 02:54:00,35.0,20.7,29.87,SW,215,1.1,1.1,55,0.00,,,0.00,0,TxWx,2013-02-05 07:54:00,
2013-02-05 02:55:00,35.0,20.7,29.87,SSW,207,0.7,1.0,55,0.00,,,0.00,0,TxWx,2013-02-05 07:55:00,
2013-02-05 02:59:00,34.9,20.7,29.87,South,176,1.1,1.1,55,0.00,,,0.00,0,TxWx,2013-02-05 07:59:00,
2013-02-05 03:00:00,34.9,20.8,29.87,South,172,1.5,1.5,55,0.00,,,0.00,0,TxWx,2013-02-05 08:00:00,
2013-02-05 03:04:00,34.9,20.9,29.87,SW,218,0.7,0.0,56,0.00,,,0.00,0,TxWx,2013-02-05 08:04:00,
2013-02-05 03:05:00,34.9,20.9,29.87,South,187,0.3,0.0,56,0.00,,,0.00,0,TxWx,2013-02-05 08:05:00,
2013-02-05 03:09:00,34.7,21.1,29.87,SW,221,0.3,0.0,57,0.00,,,0.00,0,TxWx,2013-02-05 08:09:00,
2013-02-05 03:10:00,34.7,20.8,29.86,SSW,196,1.9,1.9,56,0.00,,,0.00,0,TxWx,2013-02-05 08:10:00,
2013-02-05 03:11:00,34.7,20.9,29.86,SSW,208,1.5,1.5,56,0.00,,,0.00,0,TxWx,2013-02-05 08:11:00,
2013-02-05 03:14:00,34.6,21.1,29.86,SSW,200,1.1,1.1,57,0.00,,,0.00,0,TxWx,2013-02-05 08:14:00,
2013-02-05 03:15:00,34.5,21.3,29.86,SSW,192,1.1,1.1,58,0.00,,,0.00,0,TxWx,2013-02-05 08:15:00,
2013-02-05 03:16:00,34.5,21.1,29.86,SW,221,0.0,0.0,57,0.00,,,0.00,0,TxWx,2013-02-05 08:16:00,
2013-02-05 03:19:00,34.4,21.2,29.87,SW,220,0.3,0.0,58,0.00,,,0.00,0,TxWx,2013-02-05 08:19:00,
2013-02-05 03:20:00,34.4,21.2,29.87,SSE,159,0.7,0.0,58,0.00,,,0.00,0,TxWx,2013-02-05 08:20:00,
2013-02-05 03:21:00,34.5,20.9,29.87,WSW,239,0.3,0.0,57,0.00,,,0.00,0,TxWx,2013-02-05 08:21:00,
2013-02-05 03:25:00,34.3,21.3,29.87,West,267,0.0,0.0,58,0.00,,,0.00,0,TxWx,2013-02-05 08:25:00,
2013-02-05 03:26:00,34.3,21.3,29.87,SE,139,0.3,0.0,58,0.00,,,0.00,0,TxWx,2013-02-05 08:26:00,
2013-02-05 03:30:00,34.4,21.2,29.86,SSE,150,0.3,0.0,58,0.00,,,0.00,0,TxWx,2013-02-05 08:30:00,
2013-02-05 03:31:00,34.4,21.1,29.86,SSE,159,1.5,1.5,57,0.00,,,0.00,0,TxWx,2013-02-05 08:31:00,
2013-02-05 03:35:00,34.4,21.4,29.86,SE,133,0.3,0.0,58,0.00,,,0.00,0,TxWx,2013-02-05 08:35:00,
2013-02-05 03:36:00,34.5,21.3,29.86,SSW,208,1.1,1.1,58,0.00,,,0.00,0,TxWx,2013-02-05 08:36:00,
2013-02-05 03:37:00,34.4,21.5,29.86,SSW,209,0.0,0.0,58,0.00,,,0.00,0,TxWx,2013-02-05 08:37:00,
2013-02-05 03:40:00,34.6,21.3,29.86,SSW,202,1.1,1.1,57,0.00,,,0.00,0,TxWx,2013-02-05 08:40:00,
2013-02-05 03:41:00,34.6,21.3,29.86,SSE,159,1.1,1.1,58,0.00,,,0.00,0,TxWx,2013-02-05 08:41:00,
2013-02-05 03:42:00,34.6,21.0,29.86,South,191,1.1,1.1,57,0.00,,,0.00,0,TxWx,2013-02-05 08:42:00,
2013-02-05 03:45:00,34.8,21.1,29.86,South,175,1.1,1.1,57,0.00,,,0.00,0,TxWx,2013-02-05 08:45:00,
2013-02-05 03:46:00,34.8,21.1,29.86,South,179,0.7,0.0,57,0.00,,,0.00,0,TxWx,2013-02-05 08:46:00,
2013-02-05 03:47:00,34.8,21.0,29.86,SSE,168,0.7,0.0,56,0.00,,,0.00,0,TxWx,2013-02-05 08:47:00,
2013-02-05 03:51:00,34.7,21.3,29.86,SW,223,0.3,0.0,57,0.00,,,0.00,0,TxWx,2013-02-05 08:51:00,
2013-02-05 03:52:00,34.7,21.1,29.86,SSW,195,1.5,1.5,57,0.00,,,0.00,0,TxWx,2013-02-05 08:52:00,
2013-02-05 03:56:00,34.7,21.3,29.86,SW,220,1.1,1.1,57,0.00,,,0.00,0,TxWx,2013-02-05 08:56:00,
2013-02-05 03:57:00,34.7,21.3,29.86,SSW,212,1.1,1.1,57,0.00,,,0.00,0,TxWx,2013-02-05 08:57:00,
2013-02-05 04:01:00,34.7,21.7,29.86,SW,216,1.5,1.5,58,0.00,,,0.00,0,TxWx,2013-02-05 09:01:00,
2013-02-05 04:02:00,34.9,21.4,29.86,SW,233,0.7,0.0,57,0.00,,,0.00,0,TxWx,2013-02-05 09:02:00,
2013-02-05 04:06:00,35.0,21.4,29.85,SW,215,0.7,0.0,57,0.00,,,0.00,0,TxWx,2013-02-05 09:06:00,
2013-02-05 04:07:00,35.1,21.2,29.85,South,182,0.0,0.0,56,0.00,,,0.00,0,TxWx,2013-02-05 09:07:00,
2013-02-05 04:11:00,35.1,21.5,29.85,South,174,2.3,2.3,57,0.00,,,0.00,0,TxWx,2013-02-05 09:11:00,
2013-02-05 04:12:00,35.3,21.3,29.85,ESE,121,0.0,0.0,56,0.00,,,0.00,0,TxWx,2013-02-05 09:12:00,
2013-02-05 04:16:00,35.4,21.8,29.85,SW,227,0.7,1.0,57,0.00,,,0.00,0,TxWx,2013-02-05 09:16:00,
2013-02-05 04:17:00,35.4,21.8,29.86,SW,218,0.3,0.0,57,0.00,,,0.00,0,TxWx,2013-02-05 09:17:00,
2013-02-05 04:21:00,35.2,21.7,29.86,South,178,1.1,1.1,57,0.00,,,0.00,0,TxWx,2013-02-05 09:21:00,
2013-02-05 04:22:00,35.2,21.7,29.86,South,183,1.1,1.1,57,0.00,,,0.00,0,TxWx,2013-02-05 09:22:00,
2013-02-05 04:26:00,35.2,22.2,29.86,SSW,203,0.7,0.0,58,0.00,,,0.00,0,TxWx,2013-02-05 09:26:00,
2013-02-05 04:27:00,35.2,22.2,29.86,SSW,204,0.7,0.0,58,0.00,,,0.00,0,TxWx,2013-02-05 09:27:00,
2013-02-05 04:32:00,35.2,22.3,29.86,West,281,0.7,0.0,58,0.00,,,0.00,0,TxWx,2013-02-05 09:32:00,
2013-02-05 04:33:00,35.2,22.4,29.86,SW,229,0.7,0.0,59,0.00,,,0.00,0,TxWx,2013-02-05 09:33:00,
2013-02-05 04:37:00,35.3,22.2,29.86,West,264,0.7,1.0,58,0.00,,,0.00,0,TxWx,2013-02-05 09:37:00,
2013-02-05 04:42:00,35.4,23.9,29.86,West,271,1.1,1.1,62,0.00,,,0.00,0,TxWx,2013-02-05 09:42:00,
2013-02-05 04:43:00,35.4,23.4,29.86,SSW,212,0.3,0.0,61,0.00,,,0.00,0,TxWx,2013-02-05 09:43:00,
2013-02-05 04:47:00,35.6,23.0,29.86,West,274,0.3,0.0,59,0.00,,,0.00,0,TxWx,2013-02-05 09:47:00,
2013-02-05 04:48:00,35.6,23.0,29.86,West,274,0.0,0.0,59,0.00,,,0.00,0,TxWx,2013-02-05 09:48:00,
2013-02-05 04:52:00,35.8,22.8,29.87,West,263,0.7,1.0,58,0.00,,,0.00,0,TxWx,2013-02-05 09:52:00,
2013-02-05 04:53:00,35.8,22.8,29.87,South,186,0.7,1.0,58,0.00,,,0.00,0,TxWx,2013-02-05 09:53:00,
2013-02-05 04:57:00,35.8,22.7,29.87,SSW,200,1.1,1.1,58,0.00,,,0.00,0,TxWx,2013-02-05 09:57:00,
2013-02-05 04:58:00,35.8,22.7,29.87,SSW,194,1.1,1.1,58,0.00,,,0.00,0,TxWx,2013-02-05 09:58:00,
2013-02-05 05:02:00,36.0,23.4,29.87,South,179,1.1,1.1,59,0.00,,,0.00,0,TxWx,2013-02-05 10:02:00,
2013-02-05 05:03:00,36.0,23.4,29.87,West,270,1.1,1.1,59,0.00,,,0.00,0,TxWx,2013-02-05 10:03:00,
2013-02-05 05:04:00,36.1,23.8,29.87,West,273,1.1,1.1,60,0.00,,,0.00,0,TxWx,2013-02-05 10:04:00,
2013-02-05 05:08:00,36.8,24.6,29.87,WSW,237,1.9,1.9,60,0.00,,,0.00,0,TxWx,2013-02-05 10:08:00,
2013-02-05 05:09:00,36.6,24.0,29.87,SSW,195,1.1,1.1,59,0.00,,,0.00,0,TxWx,2013-02-05 10:09:00,
2013-02-05 05:13:00,36.6,24.4,29.87,SSW,210,1.9,1.9,60,0.00,,,0.00,0,TxWx,2013-02-05 10:13:00,
2013-02-05 05:14:00,36.7,24.3,29.87,SW,218,1.5,1.5,60,0.00,,,0.00,0,TxWx,2013-02-05 10:14:00,
2013-02-05 05:18:00,36.9,24.5,29.87,South,172,1.5,1.5,60,0.00,,,0.00,0,TxWx,2013-02-05 10:18:00,
2013-02-05 05:19:00,37.0,24.5,29.87,South,191,0.7,1.0,60,0.00,,,0.00,0,TxWx,2013-02-05 10:19:00,
2013-02-05 05:23:00,37.5,25.3,29.86,South,169,1.1,1.1,61,0.00,,,0.00,0,TxWx,2013-02-05 10:23:00,
2013-02-05 05:24:00,37.7,25.3,29.86,SSE,156,1.1,1.1,60,0.00,,,0.00,0,TxWx,2013-02-05 10:24:00,
2013-02-05 05:25:00,37.9,25.5,29.86,SSE,165,0.7,0.0,60,0.00,,,0.00,0,TxWx,2013-02-05 10:25:00,
2013-02-05 05:28:00,38.0,25.6,29.86,WSW,244,0.7,0.0,60,0.00,,,0.00,0,TxWx,2013-02-05 10:28:00,
2013-02-05 05:29:00,38.0,25.6,29.86,SSE,165,1.9,1.9,60,0.00,,,0.00,0,TxWx,2013-02-05 10:29:00,
2013-02-05 05:30:00,38.0,25.5,29.86,SW,229,0.7,0.0,60,0.00,,,0.00,0,TxWx,2013-02-05 10:30:00,
2013-02-05 05:34:00,38.0,25.7,29.86,South,180,1.5,1.5,60,0.00,,,0.00,0,TxWx,2013-02-05 10:34:00,
2013-02-05 05:35:00,38.0,25.4,29.86,WNW,303,2.3,2.3,60,0.00,,,0.00,0,TxWx,2013-02-05 10:35:00,
2013-02-05 05:39:00,37.9,25.6,29.87,WSW,237,1.1,1.1,60,0.00,,,0.00,0,TxWx,2013-02-05 10:39:00,
2013-02-05 05:40:00,37.9,25.5,29.87,SW,224,0.7,0.0,60,0.00,,,0.00,0,TxWx,2013-02-05 10:40:00,
2013-02-05 05:44:00,38.1,25.6,29.87,NW,304,2.6,2.6,60,0.00,,,0.00,0,TxWx,2013-02-05 10:44:00,
2013-02-05 05:45:00,38.5,25.7,29.87,SW,216,1.9,1.9,59,0.00,,,0.00,0,TxWx,2013-02-05 10:45:00,
2013-02-05 05:49:00,38.5,25.6,29.87,WNW,292,2.3,2.3,59,0.00,,,0.00,0,TxWx,2013-02-05 10:49:00,
2013-02-05 05:50:00,38.6,25.2,29.87,WSW,257,1.9,2.0,58,0.00,,,0.00,0,TxWx,2013-02-05 10:50:00,
2013-02-05 05:54:00,38.9,25.2,29.87,WNW,293,3.8,4.0,57,0.00,,,0.00,0,TxWx,2013-02-05 10:54:00,
2013-02-05 05:55:00,38.8,25.2,29.87,West,261,1.5,1.5,57,0.00,,,0.00,0,TxWx,2013-02-05 10:55:00,
2013-02-05 05:59:00,39.3,25.5,29.87,WNW,298,2.6,2.6,57,0.00,,,0.00,0,TxWx,2013-02-05 10:59:00,
2013-02-05 06:00:00,39.4,25.5,29.87,WNW,302,1.9,1.9,57,0.00,,,0.00,0,TxWx,2013-02-05 11:00:00,
2013-02-05 06:04:00,39.6,25.3,29.87,West,276,4.9,5.0,56,0.00,,,0.00,0,TxWx,2013-02-05 11:04:00,
2013-02-05 06:05:00,39.8,25.5,29.87,West,267,4.9,4.9,56,0.00,,,0.00,0,TxWx,2013-02-05 11:05:00,
2013-02-05 06:06:00,39.8,25.3,29.87,WNW,284,3.0,4.0,55,0.00,,,0.00,0,TxWx,2013-02-05 11:06:00,
2013-02-05 06:10:00,39.5,25.6,29.87,WNW,301,3.8,4.0,57,0.00,,,0.00,0,TxWx,2013-02-05 11:10:00,
2013-02-05 06:11:00,39.6,25.3,29.87,West,263,3.8,4.0,56,0.00,,,0.00,0,TxWx,2013-02-05 11:11:00,
2013-02-05 06:15:00,39.7,25.2,29.87,West,263,4.2,4.2,55,0.00,,,0.00,0,TxWx,2013-02-05 11:15:00,
2013-02-05 06:16:00,39.7,25.2,29.87,SW,232,3.4,3.4,55,0.00,,,0.00,0,TxWx,2013-02-05 11:16:00,
2013-02-05 06:20:00,39.5,25.2,29.87,WSW,255,2.3,2.3,56,0.00,,,0.00,0,TxWx,2013-02-05 11:20:00,
2013-02-05 06:21:00,39.5,25.2,29.87,West,270,2.6,2.6,56,0.00,,,0.00,0,TxWx,2013-02-05 11:21:00,
2013-02-05 06:25:00,38.8,25.6,29.87,WSW,254,2.3,2.3,58,0.00,,,0.00,0,TxWx,2013-02-05 11:25:00,
2013-02-05 06:26:00,38.8,25.6,29.87,SW,235,1.1,1.1,58,0.00,,,0.00,0,TxWx,2013-02-05 11:26:00,
2013-02-05 06:30:00,39.0,25.5,29.87,SW,228,3.0,3.0,58,0.00,,,0.00,0,TxWx,2013-02-05 11:30:00,
2013-02-05 06:31:00,39.0,25.5,29.87,West,267,1.5,2.0,58,0.00,,,0.00,0,TxWx,2013-02-05 11:31:00,
2013-02-05 06:36:00,38.5,25.8,29.87,WSW,258,1.9,2.0,59,0.00,,,0.00,0,TxWx,2013-02-05 11:36:00,
2013-02-05 06:41:00,38.9,25.8,29.87,West,272,1.1,2.0,59,0.00,,,0.00,0,TxWx,2013-02-05 11:41:00,
2013-02-05 06:42:00,38.9,25.7,29.87,WSW,246,1.5,1.5,58,0.00,,,0.00,0,TxWx,2013-02-05 11:42:00,
2013-02-05 06:46:00,39.0,26.1,29.87,WSW,257,2.6,3.0,59,0.00,,,0.00,0,TxWx,2013-02-05 11:46:00,
2013-02-05 06:47:00,39.1,26.0,29.87,WNW,293,1.5,1.5,58,0.00,,,0.00,0,TxWx,2013-02-05 11:47:00,
2013-02-05 06:51:00,38.9,26.2,29.88,West,274,4.2,4.2,59,0.00,,,0.00,0,TxWx,2013-02-05 11:51:00,
2013-02-05 06:52:00,39.1,26.5,29.88,West,278,3.8,4.0,60,0.00,,,0.00,0,TxWx,2013-02-05 11:52:00,
2013-02-05 06:56:00,38.9,27.1,29.88,West,281,2.3,2.3,62,0.00,,,0.00,0,TxWx,2013-02-05 11:56:00,
2013-02-05 06:57:00,38.9,27.1,29.88,West,269,1.5,1.5,62,0.00,,,0.00,0,TxWx,2013-02-05 11:57:00,
2013-02-05 07:01:00,38.9,27.3,29.88,West,268,4.6,5.0,62,0.00,,,0.00,0,TxWx,2013-02-05 12:01:00,
2013-02-05 07:02:00,38.9,27.2,29.88,West,274,3.4,3.4,62,0.00,,,0.00,0,TxWx,2013-02-05 12:02:00,
2013-02-05 07:06:00,38.9,27.1,29.88,West,278,3.0,3.0,62,0.00,,,0.00,0,TxWx,2013-02-05 12:06:00,
2013-02-05 07:07:00,38.9,27.1,29.89,West,279,3.4,4.0,62,0.00,,,0.00,0,TxWx,2013-02-05 12:07:00,
2013-02-05 07:11:00,38.7,27.6,29.89,SW,227,3.4,4.0,64,0.00,,,0.00,0,TxWx,2013-02-05 12:11:00,
2013-02-05 07:12:00,38.7,27.6,29.89,West,267,1.9,2.0,64,0.00,,,0.00,0,TxWx,2013-02-05 12:12:00,
2013-02-05 07:16:00,38.5,28.1,29.89,WSW,239,3.0,3.0,65,0.00,,,0.00,0,TxWx,2013-02-05 12:16:00,
2013-02-05 07:17:00,38.5,28.1,29.89,SW,236,2.3,2.3,65,0.00,,,0.00,0,TxWx,2013-02-05 12:17:00,
2013-02-05 07:18:00,38.3,28.2,29.88,WNW,296,5.7,6.0,66,0.00,,,0.00,0,TxWx,2013-02-05 12:18:00,
2013-02-05 07:21:00,38.7,28.6,29.88,SW,224,4.9,6.0,66,0.00,,,0.00,0,TxWx,2013-02-05 12:21:00,
2013-02-05 07:22:00,38.7,28.6,29.88,West,279,3.0,3.0,66,0.00,,,0.00,0,TxWx,2013-02-05 12:22:00,
2013-02-05 07:23:00,38.5,28.5,29.88,WSW,253,3.0,3.0,66,0.00,,,0.00,0,TxWx,2013-02-05 12:23:00,
2013-02-05 07:27:00,38.6,29.0,29.89,WNW,302,6.4,6.4,68,0.00,,,0.00,0,TxWx,2013-02-05 12:27:00,
2013-02-05 07:28:00,38.7,29.0,29.89,WNW,284,1.9,2.0,68,0.00,,,0.00,0,TxWx,2013-02-05 12:28:00,
2013-02-05 07:33:00,38.7,29.4,29.89,WNW,287,3.8,3.8,68,0.00,,,0.00,0,TxWx,2013-02-05 12:33:00,
2013-02-05 07:38:00,38.9,29.9,29.89,West,264,2.3,2.3,69,0.00,,,0.00,0,TxWx,2013-02-05 12:38:00,
2013-02-05 07:43:00,38.7,29.9,29.89,WNW,299,4.6,6.0,70,0.00,,,0.00,0,TxWx,2013-02-05 12:43:00,
2013-02-05 07:48:00,38.7,30.3,29.89,WSW,248,2.3,2.3,71,0.00,,,0.00,0,TxWx,2013-02-05 12:48:00,
2013-02-05 07:49:00,38.4,30.1,29.89,WNW,297,1.9,2.0,71,0.00,,,0.00,0,TxWx,2013-02-05 12:49:00,
2013-02-05 07:53:00,38.2,30.3,29.89,West,266,0.7,0.0,72,0.00,,,0.00,0,TxWx,2013-02-05 12:53:00,
2013-02-05 07:54:00,38.2,30.3,29.89,WSW,255,0.7,1.0,72,0.00,,,0.00,0,TxWx,2013-02-05 12:54:00,
2013-02-05 07:58:00,38.2,30.6,29.89,SW,236,2.3,2.3,73,0.00,,,0.00,0,TxWx,2013-02-05 12:58:00,
2013-02-05 07:59:00,38.2,30.6,29.89,WSW,253,1.5,2.0,73,0.00,,,0.00,0,TxWx,2013-02-05 12:59:00,
2013-02-05 08:03:00,37.6,29.6,29.89,SW,236,1.9,2.0,72,0.00,,,0.00,0,TxWx,2013-02-05 13:03:00,
2013-02-05 08:04:00,37.6,29.6,29.90,WSW,250,1.9,2.0,72,0.00,,,0.00,0,TxWx,2013-02-05 13:04:00,
2013-02-05 08:08:00,37.2,29.2,29.90,WSW,243,3.4,3.4,72,0.00,,,0.00,0,TxWx,2013-02-05 13:08:00,
2013-02-05 08:09:00,37.2,29.2,29.90,SW,231,3.4,3.4,72,0.00,,,0.00,0,TxWx,2013-02-05 13:09:00,
2013-02-05 08:13:00,36.9,29.2,29.91,WSW,237,2.3,2.3,73,0.00,,,0.00,0,TxWx,2013-02-05 13:13:00,
2013-02-05 08:14:00,36.9,29.2,29.91,WSW,246,3.0,3.0,73,0.00,,,0.00,0,TxWx,2013-02-05 13:14:00,
2013-02-05 08:18:00,36.8,29.6,29.90,SSW,200,1.9,2.0,75,0.00,,,0.00,0,TxWx,2013-02-05 13:18:00,
2013-02-05 08:19:00,36.8,29.6,29.90,WSW,243,1.9,1.9,75,0.00,,,0.00,0,TxWx,2013-02-05 13:19:00,
2013-02-05 08:20:00,36.8,29.6,29.90,West,261,1.9,1.9,74,0.00,,,0.00,0,TxWx,2013-02-05 13:20:00,
2013-02-05 08:24:00,36.8,29.6,29.90,WSW,247,1.5,1.5,74,0.00,,,0.00,0,TxWx,2013-02-05 13:24:00,
2013-02-05 08:25:00,36.8,29.6,29.90,WSW,241,1.5,1.5,74,0.00,,,0.00,0,TxWx,2013-02-05 13:25:00,
2013-02-05 08:29:00,36.9,29.7,29.90,WSW,254,1.5,1.5,75,0.00,,,0.00,0,TxWx,2013-02-05 13:29:00,
2013-02-05 08:30:00,36.8,29.8,29.90,SSW,204,0.7,1.0,75,0.00,,,0.00,0,TxWx,2013-02-05 13:30:00,
2013-02-05 08:34:00,36.8,30.1,29.89,SW,229,1.5,1.5,76,0.00,,,0.00,0,TxWx,2013-02-05 13:34:00,
2013-02-05 08:35:00,36.9,30.2,29.89,West,261,1.1,1.1,76,0.00,,,0.00,0,TxWx,2013-02-05 13:35:00,
2013-02-05 08:39:00,37.0,30.8,29.90,South,169,2.3,2.3,77,0.00,,,0.00,0,TxWx,2013-02-05 13:39:00,
2013-02-05 08:40:00,37.0,30.8,29.90,WSW,258,2.6,3.0,77,0.00,,,0.00,0,TxWx,2013-02-05 13:40:00,
2013-02-05 08:44:00,37.3,30.9,29.90,West,262,2.6,2.6,77,0.00,,,0.00,0,TxWx,2013-02-05 13:44:00,
2013-02-05 08:45:00,37.3,30.9,29.90,WSW,249,3.4,3.4,77,0.00,,,0.00,0,TxWx,2013-02-05 13:45:00,
2013-02-05 08:49:00,37.5,31.2,29.90,WSW,247,1.5,1.5,77,0.00,,,0.00,0,TxWx,2013-02-05 13:49:00,
2013-02-05 08:50:00,37.5,31.2,29.90,West,261,1.9,2.0,77,0.00,,,0.00,0,TxWx,2013-02-05 13:50:00,
2013-02-05 08:54:00,37.4,30.9,29.90,West,267,1.9,1.9,77,0.00,,,0.00,0,TxWx,2013-02-05 13:54:00,
2013-02-05 08:55:00,37.4,30.9,29.90,WSW,250,1.5,1.5,77,0.00,,,0.00,0,TxWx,2013-02-05 13:55:00,
2013-02-05 09:00:00,37.5,31.0,29.90,SW,226,2.6,2.6,77,0.00,,,0.00,0,TxWx,2013-02-05 14:00:00,
2013-02-05 09:05:00,37.6,31.2,29.90,WSW,242,1.1,1.1,77,0.00,,,0.00,0,TxWx,2013-02-05 14:05:00,
2013-02-05 09:10:00,38.1,32.0,29.90,WSW,242,1.1,1.1,78,0.00,,,0.00,0,TxWx,2013-02-05 14:10:00,
2013-02-05 09:11:00,38.2,32.1,29.90,WSW,258,0.7,1.0,78,0.00,,,0.00,0,TxWx,2013-02-05 14:11:00,
2013-02-05 09:15:00,38.7,33.0,29.90,WNW,285,1.1,1.1,79,0.00,,,0.00,0,TxWx,2013-02-05 14:15:00,
2013-02-05 09:16:00,38.8,33.1,29.90,West,280,1.5,1.5,79,0.00,,,0.00,0,TxWx,2013-02-05 14:16:00,
2013-02-05 09:20:00,39.0,33.1,29.90,WNW,297,1.9,2.0,79,0.00,,,0.00,0,TxWx,2013-02-05 14:20:00,
2013-02-05 09:21:00,39.0,33.1,29.90,West,276,3.0,3.0,79,0.00,,,0.00,0,TxWx,2013-02-05 14:21:00,
2013-02-05 09:25:00,38.9,33.0,29.90,SW,232,2.3,0.0,79,0.00,,,0.00,0,TxWx,2013-02-05 14:25:00,
2013-02-05 09:26:00,38.9,33.0,29.90,SW,232,2.3,0.0,79,0.00,,,0.00,0,TxWx,2013-02-05 14:26:00,
2013-02-05 09:30:00,38.5,32.4,29.91,WNW,286,2.6,2.6,78,0.00,,,0.00,0,TxWx,2013-02-05 14:30:00,
2013-02-05 09:31:00,38.5,32.4,29.91,WSW,243,3.0,3.0,78,0.00,,,0.00,0,TxWx,2013-02-05 14:31:00,
2013-02-05 09:36:00,38.3,32.7,29.91,NW,307,3.0,3.0,80,0.00,,,0.00,0,TxWx,2013-02-05 14:36:00,
2013-02-05 09:37:00,38.3,32.8,29.91,WSW,247,1.1,1.1,80,0.00,,,0.00,0,TxWx,2013-02-05 14:37:00,
2013-02-05 09:41:00,38.3,32.6,29.91,SW,224,2.3,2.3,79,0.00,,,0.00,0,TxWx,2013-02-05 14:41:00,
2013-02-05 09:42:00,38.3,32.7,29.91,WSW,248,0.7,0.0,80,0.00,,,0.00,0,TxWx,2013-02-05 14:42:00,
2013-02-05 09:46:00,38.4,32.9,29.91,West,280,1.5,1.5,80,0.00,,,0.00,0,TxWx,2013-02-05 14:46:00,
2013-02-05 09:47:00,38.5,33.2,29.91,WNW,290,1.1,1.1,81,0.00,,,0.00,0,TxWx,2013-02-05 14:47:00,
2013-02-05 09:51:00,38.5,33.1,29.91,WSW,248,1.9,1.9,81,0.00,,,0.00,0,TxWx,2013-02-05 14:51:00,
2013-02-05 09:52:00,38.5,33.1,29.90,WSW,248,1.1,1.1,80,0.00,,,0.00,0,TxWx,2013-02-05 14:52:00,
2013-02-05 09:56:00,38.6,33.3,29.90,WSW,246,1.5,1.5,81,0.00,,,0.00,0,TxWx,2013-02-05 14:56:00,
2013-02-05 09:57:00,38.6,33.3,29.90,SW,235,1.1,1.1,81,0.00,,,0.00,0,TxWx,2013-02-05 14:57:00,
2013-02-05 10:01:00,38.4,33.1,29.91,WSW,253,1.9,1.9,81,0.00,,,0.00,0,TxWx,2013-02-05 15:01:00,
2013-02-05 10:02:00,38.4,33.1,29.91,West,262,2.3,2.3,81,0.00,,,0.00,0,TxWx,2013-02-05 15:02:00,
2013-02-05 10:06:00,38.7,33.5,29.91,SSW,205,2.3,2.3,81,0.00,,,0.00,0,TxWx,2013-02-05 15:06:00,
2013-02-05 10:07:00,38.7,33.5,29.91,SSW,196,1.9,2.0,81,0.00,,,0.00,0,TxWx,2013-02-05 15:07:00,
2013-02-05 10:12:00,38.8,33.7,29.91,West,267,2.6,3.0,81,0.00,,,0.00,0,TxWx,2013-02-05 15:12:00,
2013-02-05 10:17:00,38.5,33.5,29.91,WNW,301,1.9,2.0,82,0.00,,,0.00,0,TxWx,2013-02-05 15:17:00,
2013-02-05 10:18:00,38.4,33.4,29.91,WNW,283,1.5,1.5,82,0.00,,,0.00,0,TxWx,2013-02-05 15:18:00,
2013-02-05 10:22:00,38.2,33.2,29.92,SW,236,2.3,3.0,82,0.00,,,0.00,0,TxWx,2013-02-05 15:22:00,
2013-02-05 10:23:00,38.1,33.2,29.92,WSW,242,2.6,2.6,82,0.00,,,0.00,0,TxWx,2013-02-05 15:23:00,
2013-02-05 10:27:00,38.0,33.1,29.92,WSW,246,1.9,1.9,82,0.00,,,0.00,0,TxWx,2013-02-05 15:27:00,
2013-02-05 10:28:00,37.9,33.1,29.92,West,260,2.3,2.3,82,0.00,,,0.00,0,TxWx,2013-02-05 15:28:00,
2013-02-05 10:32:00,37.8,33.2,29.92,SW,226,3.0,3.0,83,0.00,,,0.00,0,TxWx,2013-02-05 15:32:00,
2013-02-05 10:33:00,37.8,33.2,29.92,SW,236,1.5,1.5,83,0.00,,,0.00,0,TxWx,2013-02-05 15:33:00,
2013-02-05 10:37:00,37.8,33.4,29.92,WSW,250,1.9,1.9,84,0.00,,,0.00,0,TxWx,2013-02-05 15:37:00,
2013-02-05 10:38:00,37.8,33.4,29.92,West,272,1.1,1.1,84,0.00,,,0.00,0,TxWx,2013-02-05 15:38:00,
2013-02-05 10:42:00,37.8,33.6,29.92,WSW,251,1.9,2.0,84,0.00,,,0.00,0,TxWx,2013-02-05 15:42:00,
2013-02-05 10:43:00,37.8,33.6,29.92,WSW,244,2.3,2.3,84,0.00,,,0.00,0,TxWx,2013-02-05 15:43:00,
2013-02-05 10:48:00,38.0,34.0,29.92,SW,217,2.6,2.6,85,0.00,,,0.00,0,TxWx,2013-02-05 15:48:00,
2013-02-05 10:53:00,38.1,34.3,29.92,SW,235,2.6,2.6,86,0.00,,,0.00,0,TxWx,2013-02-05 15:53:00,
2013-02-05 10:58:00,38.4,34.7,29.92,WSW,248,3.0,3.0,86,0.00,,,0.00,0,TxWx,2013-02-05 15:58:00,
2013-02-05 10:59:00,38.4,34.8,29.92,WSW,245,3.0,3.0,86,0.00,,,0.00,0,TxWx,2013-02-05 15:59:00,
2013-02-05 11:03:00,38.7,35.2,29.92,West,259,2.6,2.6,87,0.00,,,0.00,0,TxWx,2013-02-05 16:03:00,
2013-02-05 11:04:00,38.7,35.2,29.92,WSW,257,2.6,3.0,87,0.00,,,0.00,0,TxWx,2013-02-05 16:04:00,
2013-02-05 11:05:00,38.7,35.1,29.93,WSW,248,1.5,1.5,86,0.00,,,0.00,0,TxWx,2013-02-05 16:05:00,
2013-02-05 11:08:00,38.7,35.2,29.93,WSW,255,2.3,2.3,87,0.00,,,0.00,0,TxWx,2013-02-05 16:08:00,
2013-02-05 11:09:00,38.7,35.2,29.93,WNW,302,2.3,2.3,87,0.00,,,0.00,0,TxWx,2013-02-05 16:09:00,
2013-02-05 11:10:00,38.7,35.3,29.93,WSW,258,3.4,3.4,87,0.00,,,0.00,0,TxWx,2013-02-05 16:10:00,
2013-02-05 11:13:00,38.8,35.5,29.93,WSW,250,3.0,3.0,87,0.00,,,0.00,0,TxWx,2013-02-05 16:13:00,
2013-02-05 11:14:00,38.8,35.5,29.93,WSW,256,2.3,2.3,87,0.00,,,0.00,0,TxWx,2013-02-05 16:14:00,
2013-02-05 11:15:00,38.9,35.6,29.93,WNW,297,3.4,3.4,87,0.00,,,0.00,0,TxWx,2013-02-05 16:15:00,
2013-02-05 11:18:00,39.1,35.9,29.93,WSW,242,3.8,3.8,87,0.00,,,0.00,0,TxWx,2013-02-05 16:18:00,
2013-02-05 11:19:00,39.1,35.9,29.93,SSW,210,2.3,2.3,87,0.00,,,0.00,0,TxWx,2013-02-05 16:19:00,
2013-02-05 11:20:00,38.8,35.2,29.93,WSW,255,2.3,2.3,87,0.00,,,0.00,0,TxWx,2013-02-05 16:20:00,
2013-02-05 11:23:00,38.8,35.4,29.93,WSW,251,2.3,2.3,87,0.00,,,0.00,0,TxWx,2013-02-05 16:23:00,
2013-02-05 11:24:00,38.8,35.4,29.93,SW,234,2.6,3.0,87,0.00,,,0.00,0,TxWx,2013-02-05 16:24:00,
2013-02-05 11:25:00,38.9,35.5,29.93,WSW,254,3.4,3.4,87,0.00,,,0.00,0,TxWx,2013-02-05 16:25:00,
2013-02-05 11:26:00,38.9,35.5,29.93,SSW,209,2.3,2.3,87,0.00,,,0.00,0,TxWx,2013-02-05 16:26:00,
2013-02-05 11:28:00,39.3,35.9,29.92,SW,228,2.3,2.3,87,0.00,,,0.00,0,TxWx,2013-02-05 16:28:00,
2013-02-05 11:29:00,39.4,36.0,29.92,WSW,256,1.5,1.5,87,0.00,,,0.00,0,TxWx,2013-02-05 16:29:00,
2013-02-05 11:30:00,39.4,36.0,29.92,WSW,256,2.6,2.6,87,0.00,,,0.00,0,TxWx,2013-02-05 16:30:00,
2013-02-05 11:31:00,39.4,35.9,29.92,SSW,209,1.5,1.5,87,0.00,,,0.00,0,TxWx,2013-02-05 16:31:00,
2013-02-05 11:34:00,39.8,36.4,29.92,WSW,250,1.5,2.0,87,0.00,,,0.00,0,TxWx,2013-02-05 16:34:00,
2013-02-05 11:35:00,40.1,36.7,29.92,WSW,246,3.0,3.0,87,0.00,,,0.00,0,TxWx,2013-02-05 16:35:00,
2013-02-05 11:36:00,40.4,37.0,29.92,West,275,1.9,2.0,87,0.00,,,0.00,0,TxWx,2013-02-05 16:36:00,
2013-02-05 11:39:00,41.0,37.4,29.92,West,277,3.4,4.0,86,0.00,,,0.00,0,TxWx,2013-02-05 16:39:00,
2013-02-05 11:40:00,40.9,36.7,29.92,WSW,254,1.5,1.5,84,0.00,,,0.00,0,TxWx,2013-02-05 16:40:00,
2013-02-05 11:41:00,41.3,37.1,29.92,WSW,243,3.0,3.0,85,0.00,,,0.00,0,TxWx,2013-02-05 16:41:00,
2013-02-05 11:45:00,41.8,37.3,29.92,WNW,285,1.9,1.9,84,0.00,,,0.00,0,TxWx,2013-02-05 16:45:00,
2013-02-05 11:46:00,41.7,36.9,29.92,SW,231,4.2,4.2,83,0.00,,,0.00,0,TxWx,2013-02-05 16:46:00,
2013-02-05 11:47:00,41.6,36.7,29.92,WSW,256,3.8,3.8,82,0.00,,,0.00,0,TxWx,2013-02-05 16:47:00,
2013-02-05 11:50:00,41.8,36.5,29.92,SW,236,5.3,5.3,81,0.00,,,0.00,0,TxWx,2013-02-05 16:50:00,
2013-02-05 11:51:00,41.8,36.5,29.93,South,180,1.9,2.0,81,0.00,,,0.00,0,TxWx,2013-02-05 16:51:00,
2013-02-05 11:52:00,41.7,36.1,29.92,West,263,3.8,4.0,80,0.00,,,0.00,0,TxWx,2013-02-05 16:52:00,
2013-02-05 11:55:00,41.9,36.1,29.92,WSW,246,4.2,4.2,79,0.00,,,0.00,0,TxWx,2013-02-05 16:55:00,
2013-02-05 11:56:00,41.9,35.9,29.92,West,263,4.6,5.0,79,0.00,,,0.00,0,TxWx,2013-02-05 16:56:00,
2013-02-05 11:57:00,42.2,36.4,29.92,West,278,4.2,5.0,79,0.00,,,0.00,0,TxWx,2013-02-05 16:57:00,
2013-02-05 12:00:00,42.3,36.1,29.92,SSW,213,2.3,2.3,78,0.00,,,0.00,0,TxWx,2013-02-05 17:00:00,
2013-02-05 12:01:00,42.2,36.0,29.92,SSE,163,3.0,3.0,78,0.00,,,0.00,0,TxWx,2013-02-05 17:01:00,
2013-02-05 12:02:00,42.2,35.8,29.92,NW,305,4.6,4.6,78,0.00,,,0.00,0,TxWx,2013-02-05 17:02:00,
2013-02-05 12:05:00,42.1,35.6,29.92,SW,230,3.4,3.4,77,0.00,,,0.00,0,TxWx,2013-02-05 17:05:00,
2013-02-05 12:06:00,42.1,35.0,29.92,WSW,258,5.3,5.3,75,0.00,,,0.00,0,TxWx,2013-02-05 17:06:00,
2013-02-05 12:07:00,42.3,35.3,29.92,WNW,296,3.8,4.0,76,0.00,,,0.00,0,TxWx,2013-02-05 17:07:00,
2013-02-05 12:10:00,42.4,34.9,29.92,WSW,242,1.5,2.0,74,0.00,,,0.00,0,TxWx,2013-02-05 17:10:00,
2013-02-05 12:11:00,42.4,34.9,29.92,SW,234,3.0,3.0,74,0.00,,,0.00,0,TxWx,2013-02-05 17:11:00,
2013-02-05 12:12:00,42.5,35.2,29.92,WNW,295,5.7,6.0,75,0.00,,,0.00,0,TxWx,2013-02-05 17:12:00,
2013-02-05 12:15:00,42.9,35.6,29.92,WSW,240,6.4,6.4,75,0.00,,,0.00,0,TxWx,2013-02-05 17:15:00,
2013-02-05 12:16:00,42.9,35.6,29.92,SW,220,4.6,4.6,75,0.00,,,0.00,0,TxWx,2013-02-05 17:16:00,
2013-02-05 12:17:00,42.8,35.1,29.92,WNW,303,2.3,2.3,74,0.00,,,0.00,0,TxWx,2013-02-05 17:17:00,
2013-02-05 12:20:00,43.2,35.7,29.92,WNW,303,6.0,6.0,74,0.00,,,0.00,0,TxWx,2013-02-05 17:20:00,
2013-02-05 12:21:00,42.9,34.9,29.92,WSW,252,3.8,4.0,73,0.00,,,0.00,0,TxWx,2013-02-05 17:21:00,
2013-02-05 12:22:00,43.0,35.0,29.92,SW,223,3.8,3.8,72,0.00,,,0.00,0,TxWx,2013-02-05 17:22:00,
2013-02-05 12:25:00,43.3,35.0,29.92,WSW,245,1.1,1.1,72,0.00,,,0.00,0,TxWx,2013-02-05 17:25:00,
2013-02-05 12:26:00,43.6,35.4,29.92,West,273,1.1,1.1,72,0.00,,,0.00,0,TxWx,2013-02-05 17:26:00,
2013-02-05 12:27:00,43.8,35.7,29.92,West,262,3.0,3.0,72,0.00,,,0.00,0,TxWx,2013-02-05 17:27:00,
2013-02-05 12:30:00,44.0,35.2,29.92,WNW,303,3.8,3.8,71,0.00,,,0.00,0,TxWx,2013-02-05 17:30:00,
2013-02-05 12:31:00,43.9,35.1,29.92,WSW,254,4.6,4.6,70,0.00,,,0.00,0,TxWx,2013-02-05 17:31:00,
2013-02-05 12:32:00,44.1,35.5,29.92,WNW,303,3.4,3.4,71,0.00,,,0.00,0,TxWx,2013-02-05 17:32:00,
2013-02-05 12:35:00,43.9,34.4,29.92,WSW,252,3.8,3.8,69,0.00,,,0.00,0,TxWx,2013-02-05 17:35:00,
2013-02-05 12:36:00,44.1,35.0,29.92,WNW,296,1.9,1.9,70,0.00,,,0.00,0,TxWx,2013-02-05 17:36:00,
2013-02-05 12:37:00,44.1,35.0,29.92,WNW,292,2.3,2.3,70,0.00,,,0.00,0,TxWx,2013-02-05 17:37:00,
2013-02-05 12:41:00,44.2,34.4,29.91,West,263,2.6,3.0,68,0.00,,,0.00,0,TxWx,2013-02-05 17:41:00,
2013-02-05 12:42:00,44.1,34.1,29.91,NW,326,1.9,2.0,67,0.00,,,0.00,0,TxWx,2013-02-05 17:42:00,
2013-02-05 12:43:00,44.5,35.0,29.91,WNW,296,1.9,1.9,69,0.00,,,0.00,0,TxWx,2013-02-05 17:43:00,
2013-02-05 12:46:00,44.6,34.8,29.91,SW,233,3.4,3.4,68,0.00,,,0.00,0,TxWx,2013-02-05 17:46:00,
2013-02-05 12:47:00,44.5,34.7,29.91,West,271,2.6,2.6,68,0.00,,,0.00,0,TxWx,2013-02-05 17:47:00,
2013-02-05 12:48:00,44.7,35.4,29.91,West,267,1.9,1.9,69,0.00,,,0.00,0,TxWx,2013-02-05 17:48:00,
2013-02-05 12:51:00,45.1,35.0,29.91,WNW,303,1.5,1.5,67,0.00,,,0.00,0,TxWx,2013-02-05 17:51:00,
2013-02-05 12:52:00,45.1,35.0,29.91,WNW,299,2.3,2.3,67,0.00,,,0.00,0,TxWx,2013-02-05 17:52:00,
2013-02-05 12:53:00,45.0,34.9,29.91,WNW,303,3.0,3.0,67,0.00,,,0.00,0,TxWx,2013-02-05 17:53:00,
2013-02-05 12:56:00,45.2,35.0,29.90,West,273,2.3,2.3,67,0.00,,,0.00,0,TxWx,2013-02-05 17:56:00,
2013-02-05 12:57:00,45.2,35.0,29.90,WSW,254,3.4,3.4,67,0.00,,,0.00,0,TxWx,2013-02-05 17:57:00,
2013-02-05 12:58:00,45.3,35.1,29.90,WNW,290,4.9,4.9,67,0.00,,,0.00,0,TxWx,2013-02-05 17:58:00,
2013-02-05 13:01:00,45.3,34.3,29.90,SW,234,3.4,3.4,65,0.00,,,0.00,0,TxWx,2013-02-05 18:01:00,
2013-02-05 13:02:00,45.0,33.4,29.90,West,261,3.8,3.8,63,0.00,,,0.00,0,TxWx,2013-02-05 18:02:00,
2013-02-05 13:03:00,45.0,33.4,29.90,West,273,3.8,3.8,63,0.00,,,0.00,0,TxWx,2013-02-05 18:03:00,
2013-02-05 13:06:00,45.2,33.9,29.90,West,279,3.4,3.4,64,0.00,,,0.00,0,TxWx,2013-02-05 18:06:00,
2013-02-05 13:07:00,45.2,33.7,29.90,WNW,286,3.8,3.8,63,0.00,,,0.00,0,TxWx,2013-02-05 18:07:00,
2013-02-05 13:08:00,45.2,33.7,29.90,WSW,253,2.6,3.0,63,0.00,,,0.00,0,TxWx,2013-02-05 18:08:00,
2013-02-05 13:12:00,44.9,33.0,29.90,NW,323,3.4,3.4,62,0.00,,,0.00,0,TxWx,2013-02-05 18:12:00,
2013-02-05 13:13:00,44.8,32.4,29.90,WNW,303,3.0,3.0,61,0.00,,,0.00,0,TxWx,2013-02-05 18:13:00,
2013-02-05 13:16:00,44.6,32.1,29.90,West,261,2.6,2.6,61,0.00,,,0.00,0,TxWx,2013-02-05 18:16:00,
2013-02-05 13:18:00,44.5,32.3,29.90,WSW,251,2.3,2.3,61,0.00,,,0.00,0,TxWx,2013-02-05 18:18:00,
2013-02-05 13:22:00,44.5,32.5,29.90,South,182,3.0,3.0,62,0.00,,,0.00,0,TxWx,2013-02-05 18:22:00,
2013-02-05 13:23:00,44.6,32.6,29.90,West,267,2.6,2.6,62,0.00,,,0.00,0,TxWx,2013-02-05 18:23:00,
2013-02-05 13:27:00,44.7,32.8,29.90,SW,218,2.6,2.6,62,0.00,,,0.00,0,TxWx,2013-02-05 18:27:00,
2013-02-05 13:28:00,45.0,33.6,29.90,WNW,292,2.3,3.0,64,0.00,,,0.00,0,TxWx,2013-02-05 18:28:00,
2013-02-05 13:29:00,45.0,33.6,29.90,West,279,5.7,5.7,64,0.00,,,0.00,0,TxWx,2013-02-05 18:29:00,
2013-02-05 13:32:00,44.9,33.2,29.90,WSW,248,2.6,3.0,63,0.00,,,0.00,0,TxWx,2013-02-05 18:32:00,
2013-02-05 13:33:00,44.9,33.2,29.90,WNW,301,2.3,2.3,63,0.00,,,0.00,0,TxWx,2013-02-05 18:33:00,
2013-02-05 13:34:00,44.9,33.2,29.89,West,271,3.8,3.8,63,0.00,,,0.00,0,TxWx,2013-02-05 18:34:00,
2013-02-05 13:37:00,45.4,34.1,29.89,WSW,237,3.0,0.0,64,0.00,,,0.00,0,TxWx,2013-02-05 18:37:00,
2013-02-05 13:39:00,45.2,33.1,29.89,WSW,257,1.1,1.1,62,0.00,,,0.00,0,TxWx,2013-02-05 18:39:00,
2013-02-05 13:40:00,45.2,33.1,29.89,West,260,1.5,1.5,62,0.00,,,0.00,0,TxWx,2013-02-05 18:40:00,
2013-02-05 13:42:00,45.7,34.1,29.89,West,268,2.3,2.3,63,0.00,,,0.00,0,TxWx,2013-02-05 18:42:00,
2013-02-05 13:44:00,46.0,34.6,29.89,West,274,3.4,3.4,64,0.00,,,0.00,0,TxWx,2013-02-05 18:44:00,
2013-02-05 13:45:00,46.0,34.6,29.89,WNW,301,3.0,3.0,64,0.00,,,0.00,0,TxWx,2013-02-05 18:45:00,
2013-02-05 13:48:00,46.2,34.6,29.89,WNW,301,3.4,4.0,63,0.00,,,0.00,0,TxWx,2013-02-05 18:48:00,
2013-02-05 13:50:00,46.0,34.2,29.89,West,270,2.3,2.3,63,0.00,,,0.00,0,TxWx,2013-02-05 18:50:00,
2013-02-05 13:53:00,46.2,34.2,29.89,SW,235,3.0,3.0,62,0.00,,,0.00,0,TxWx,2013-02-05 18:53:00,
2013-02-05 13:55:00,46.2,33.9,29.89,West,276,3.4,3.4,62,0.00,,,0.00,0,TxWx,2013-02-05 18:55:00,
2013-02-05 13:56:00,46.1,33.7,29.89,West,274,3.4,3.4,61,0.00,,,0.00,0,TxWx,2013-02-05 18:56:00,
2013-02-05 13:58:00,45.8,33.3,29.89,SW,223,3.0,3.0,61,0.00,,,0.00,0,TxWx,2013-02-05 18:58:00,
2013-02-05 14:00:00,45.9,33.7,29.89,WSW,245,2.3,2.3,62,0.00,,,0.00,0,TxWx,2013-02-05 19:00:00,
2013-02-05 14:01:00,45.8,33.3,29.89,WSW,239,2.3,2.3,61,0.00,,,0.00,0,TxWx,2013-02-05 19:01:00,
2013-02-05 14:03:00,45.8,33.1,29.89,West,270,2.6,2.6,60,0.00,,,0.00,0,TxWx,2013-02-05 19:03:00,
2013-02-05 14:05:00,45.8,33.3,29.89,West,276,5.3,5.3,61,0.00,,,0.00,0,TxWx,2013-02-05 19:05:00,
2013-02-05 14:06:00,45.8,33.3,29.89,West,280,2.6,3.0,61,0.00,,,0.00,0,TxWx,2013-02-05 19:06:00,
2013-02-05 14:08:00,45.7,33.1,29.89,West,271,2.6,3.0,61,0.00,,,0.00,0,TxWx,2013-02-05 19:08:00,
2013-02-05 14:10:00,45.8,33.3,29.90,SW,216,3.8,4.0,61,0.00,,,0.00,0,TxWx,2013-02-05 19:10:00,
2013-02-05 14:11:00,45.7,32.9,29.90,WSW,246,3.8,3.8,60,0.00,,,0.00,0,TxWx,2013-02-05 19:11:00,
2013-02-05 14:13:00,45.5,32.5,29.89,WSW,244,3.8,4.0,60,0.00,,,0.00,0,TxWx,2013-02-05 19:13:00,
2013-02-05 14:15:00,45.7,33.6,29.89,SW,215,1.9,1.9,62,0.00,,,0.00,0,TxWx,2013-02-05 19:15:00,
2013-02-05 14:16:00,45.7,33.6,29.89,SW,235,3.4,3.4,62,0.00,,,0.00,0,TxWx,2013-02-05 19:16:00,
2013-02-05 14:18:00,46.0,33.8,29.90,West,280,3.4,3.4,62,0.00,,,0.00,0,TxWx,2013-02-05 19:18:00,
2013-02-05 14:20:00,45.9,33.2,29.89,WSW,252,2.6,3.0,60,0.00,,,0.00,0,TxWx,2013-02-05 19:20:00,
2013-02-05 14:21:00,45.9,33.2,29.89,West,274,3.8,4.0,60,0.00,,,0.00,0,TxWx,2013-02-05 19:21:00,
2013-02-05 14:22:00,46.0,33.3,29.89,West,266,3.4,3.4,61,0.00,,,0.00,0,TxWx,2013-02-05 19:22:00,
2013-02-05 14:23:00,46.3,33.8,29.89,WSW,250,2.6,3.0,61,0.00,,,0.00,0,TxWx,2013-02-05 19:23:00,
2013-02-05 14:25:00,46.3,33.2,29.89,SW,236,1.5,1.5,60,0.00,,,0.00,0,TxWx,2013-02-05 19:25:00,
2013-02-05 14:26:00,46.3,33.2,29.89,WNW,302,4.6,4.6,60,0.00,,,0.00,0,TxWx,2013-02-05 19:26:00,
2013-02-05 14:27:00,46.4,33.3,29.89,West,263,4.2,4.2,60,0.00,,,0.00,0,TxWx,2013-02-05 19:27:00,
2013-02-05 14:28:00,46.5,33.1,29.89,WNW,291,3.0,3.0,59,0.00,,,0.00,0,TxWx,2013-02-05 19:28:00,
2013-02-05 14:30:00,46.4,32.4,29.89,WNW,303,6.0,6.0,57,0.00,,,0.00,0,TxWx,2013-02-05 19:30:00,
2013-02-05 14:31:00,46.7,33.3,29.89,West,259,2.6,3.0,59,0.00,,,0.00,0,TxWx,2013-02-05 19:31:00,
2013-02-05 14:32:00,46.7,33.3,29.89,WSW,249,2.3,2.3,59,0.00,,,0.00,0,TxWx,2013-02-05 19:32:00,
2013-02-05 14:33:00,46.8,33.5,29.89,SW,221,3.0,3.0,59,0.00,,,0.00,0,TxWx,2013-02-05 19:33:00,
2013-02-05 14:35:00,46.8,33.4,29.89,SW,233,2.3,3.0,59,0.00,,,0.00,0,TxWx,2013-02-05 19:35:00,
2013-02-05 14:36:00,46.8,33.4,29.89,SW,224,2.3,0.0,59,0.00,,,0.00,0,TxWx,2013-02-05 19:36:00,
2013-02-05 14:38:00,46.8,32.5,29.89,WSW,257,2.6,2.6,57,0.00,,,0.00,0,TxWx,2013-02-05 19:38:00,
2013-02-05 14:39:00,46.8,31.8,29.89,WNW,299,4.6,4.6,55,0.00,,,0.00,0,TxWx,2013-02-05 19:39:00,
2013-02-05 14:41:00,47.1,32.2,29.89,WNW,303,3.0,3.0,56,0.00,,,0.00,0,TxWx,2013-02-05 19:41:00,
2013-02-05 14:43:00,46.9,31.0,29.89,West,264,4.2,0.0,53,0.00,,,0.00,0,TxWx,2013-02-05 19:43:00,
2013-02-05 14:45:00,47.5,32.4,29.89,WNW,290,4.2,4.2,55,0.00,,,0.00,0,TxWx,2013-02-05 19:45:00,
2013-02-05 14:46:00,47.3,31.6,29.89,West,280,2.6,3.0,54,0.00,,,0.00,0,TxWx,2013-02-05 19:46:00,
2013-02-05 14:48:00,47.7,32.7,29.89,WNW,297,3.4,3.4,55,0.00,,,0.00,0,TxWx,2013-02-05 19:48:00,
2013-02-05 14:50:00,47.5,32.3,29.89,WNW,293,3.4,4.0,55,0.00,,,0.00,0,TxWx,2013-02-05 19:50:00,
2013-02-05 14:51:00,47.5,32.1,29.89,West,271,1.9,2.0,55,0.00,,,0.00,0,TxWx,2013-02-05 19:51:00,
2013-02-05 14:52:00,47.4,32.3,29.89,SW,230,2.3,3.0,55,0.00,,,0.00,0,TxWx,2013-02-05 19:52:00,
2013-02-05 14:53:00,47.6,32.2,29.89,WSW,238,2.3,2.3,54,0.00,,,0.00,0,TxWx,2013-02-05 19:53:00,
2013-02-05 14:55:00,47.3,31.7,29.89,WNW,303,3.4,3.4,54,0.00,,,0.00,0,TxWx,2013-02-05 19:55:00,
2013-02-05 14:56:00,47.3,31.7,29.89,WNW,293,2.6,3.0,54,0.00,,,0.00,0,TxWx,2013-02-05 19:56:00,
2013-02-05 14:57:00,47.4,31.6,29.89,West,266,3.8,3.8,54,0.00,,,0.00,0,TxWx,2013-02-05 19:57:00,
2013-02-05 14:58:00,47.4,31.6,29.89,SW,234,3.4,3.4,54,0.00,,,0.00,0,TxWx,2013-02-05 19:58:00,
2013-02-05 15:00:00,47.6,32.2,29.89,NW,325,0.7,1.0,55,0.00,,,0.00,0,TxWx,2013-02-05 20:00:00,
2013-02-05 15:01:00,47.6,32.3,29.89,West,263,2.6,3.0,55,0.00,,,0.00,0,TxWx,2013-02-05 20:01:00,
2013-02-05 15:03:00,47.6,32.3,29.89,WSW,251,2.3,3.0,55,0.00,,,0.00,0,TxWx,2013-02-05 20:03:00,
2013-02-05 15:04:00,47.6,32.3,29.89,WSW,252,2.3,2.3,55,0.00,,,0.00,0,TxWx,2013-02-05 20:04:00,
2013-02-05 15:05:00,47.5,32.0,29.89,WNW,303,4.2,5.0,54,0.00,,,0.00,0,TxWx,2013-02-05 20:05:00,
2013-02-05 15:06:00,47.4,30.7,29.89,WNW,298,1.5,1.5,52,0.00,,,0.00,0,TxWx,2013-02-05 20:06:00,
2013-02-05 15:08:00,47.6,31.8,29.89,West,272,1.9,1.9,54,0.00,,,0.00,0,TxWx,2013-02-05 20:08:00,
2013-02-05 15:09:00,47.6,31.8,29.89,WSW,253,2.3,2.3,54,0.00,,,0.00,0,TxWx,2013-02-05 20:09:00,
2013-02-05 15:11:00,47.9,32.1,29.89,West,280,3.8,4.0,54,0.00,,,0.00,0,TxWx,2013-02-05 20:11:00,
2013-02-05 15:13:00,47.6,31.4,29.89,West,278,3.4,3.4,53,0.00,,,0.00,0,TxWx,2013-02-05 20:13:00,
2013-02-05 15:14:00,47.5,31.0,29.89,West,271,3.8,3.8,52,0.00,,,0.00,0,TxWx,2013-02-05 20:14:00,
2013-02-05 15:16:00,47.4,30.8,29.89,WSW,247,3.4,3.4,52,0.00,,,0.00,0,TxWx,2013-02-05 20:16:00,
2013-02-05 15:17:00,47.4,30.6,29.89,West,272,3.4,3.4,51,0.00,,,0.00,0,TxWx,2013-02-05 20:17:00,
2013-02-05 15:19:00,47.7,31.3,29.89,WNW,302,4.9,4.9,52,0.00,,,0.00,0,TxWx,2013-02-05 20:19:00,
2013-02-05 15:21:00,47.8,31.5,29.89,SW,229,2.6,2.6,53,0.00,,,0.00,0,TxWx,2013-02-05 20:21:00,
2013-02-05 15:22:00,47.7,31.0,29.89,WSW,256,2.6,2.6,52,0.00,,,0.00,0,TxWx,2013-02-05 20:22:00,
2013-02-05 15:24:00,47.8,31.1,29.89,SW,218,1.9,1.9,52,0.00,,,0.00,0,TxWx,2013-02-05 20:24:00,
2013-02-05 15:26:00,47.8,31.0,29.89,WNW,288,4.2,4.2,51,0.00,,,0.00,0,TxWx,2013-02-05 20:26:00,
2013-02-05 15:27:00,48.3,32.0,29.89,West,262,3.0,4.0,53,0.00,,,0.00,0,TxWx,2013-02-05 20:27:00,
2013-02-05 15:29:00,48.1,30.9,29.89,WNW,287,4.2,4.2,51,0.00,,,0.00,0,TxWx,2013-02-05 20:29:00,
2013-02-05 15:31:00,48.2,30.6,29.89,WSW,246,2.3,2.3,50,0.00,,,0.00,0,TxWx,2013-02-05 20:31:00,
2013-02-05 15:32:00,48.3,31.0,29.89,WNW,295,4.2,4.2,51,0.00,,,0.00,0,TxWx,2013-02-05 20:32:00,
2013-02-05 15:35:00,48.3,30.7,29.89,West,277,5.3,5.3,50,0.00,,,0.00,0,TxWx,2013-02-05 20:35:00,
2013-02-05 15:36:00,48.2,30.4,29.89,WNW,283,3.8,3.8,49,0.00,,,0.00,0,TxWx,2013-02-05 20:36:00,
2013-02-05 15:38:00,48.1,29.7,29.89,WNW,301,4.2,4.2,48,0.00,,,0.00,0,TxWx,2013-02-05 20:38:00,
2013-02-05 15:40:00,48.1,29.8,29.89,WSW,257,1.5,1.5,48,0.00,,,0.00,0,TxWx,2013-02-05 20:40:00,
2013-02-05 15:41:00,48.3,30.5,29.89,WSW,240,2.6,3.0,49,0.00,,,0.00,0,TxWx,2013-02-05 20:41:00,
2013-02-05 15:43:00,48.3,30.4,29.89,SW,228,1.5,1.5,49,0.00,,,0.00,0,TxWx,2013-02-05 20:43:00,
2013-02-05 15:45:00,48.2,30.0,29.89,WSW,251,1.9,2.0,49,0.00,,,0.00,0,TxWx,2013-02-05 20:45:00,
2013-02-05 15:46:00,48.4,30.6,29.89,WNW,301,4.2,4.2,50,0.00,,,0.00,0,TxWx,2013-02-05 20:46:00,
2013-02-05 15:48:00,48.5,30.3,29.89,West,274,4.9,4.9,49,0.00,,,0.00,0,TxWx,2013-02-05 20:48:00,
2013-02-05 15:50:00,48.2,29.2,29.89,WNW,283,3.8,4.0,47,0.00,,,0.00,0,TxWx,2013-02-05 20:50:00,
2013-02-05 15:51:00,48.3,29.4,29.89,SSW,201,2.6,2.6,47,0.00,,,0.00,0,TxWx,2013-02-05 20:51:00,
2013-02-05 15:53:00,48.3,29.4,29.89,WSW,252,3.4,3.4,47,0.00,,,0.00,0,TxWx,2013-02-05 20:53:00,
2013-02-05 15:55:00,48.4,29.5,29.89,West,272,3.8,4.0,47,0.00,,,0.00,0,TxWx,2013-02-05 20:55:00,
2013-02-05 15:56:00,48.4,29.3,29.89,WSW,241,3.0,3.0,47,0.00,,,0.00,0,TxWx,2013-02-05 20:56:00,
2013-02-05 15:57:00,48.4,28.6,29.89,WSW,244,3.0,3.0,46,0.00,,,0.00,0,TxWx,2013-02-05 20:57:00,
2013-02-05 15:58:00,48.4,28.9,29.89,South,184,3.0,3.0,46,0.00,,,0.00,0,TxWx,2013-02-05 20:58:00,
2013-02-05 16:00:00,48.4,29.0,29.89,WNW,289,3.0,0.0,46,0.00,,,0.00,0,TxWx,2013-02-05 21:00:00,
2013-02-05 16:01:00,48.3,29.0,29.89,WNW,289,4.6,4.6,47,0.00,,,0.00,0,TxWx,2013-02-05 21:01:00,
2013-02-05 16:02:00,48.3,29.0,29.89,West,270,3.0,3.0,47,0.00,,,0.00,0,TxWx,2013-02-05 21:02:00,
2013-02-05 16:03:00,48.3,29.0,29.89,SW,235,4.6,4.6,46,0.00,,,0.00,0,TxWx,2013-02-05 21:03:00,
2013-02-05 16:05:00,48.4,29.6,29.89,WNW,296,2.3,3.0,47,0.00,,,0.00,0,TxWx,2013-02-05 21:05:00,
2013-02-05 16:07:00,48.4,29.6,29.89,NNW,333,2.3,0.0,47,0.00,,,0.00,0,TxWx,2013-02-05 21:07:00,
2013-02-05 16:08:00,48.4,29.3,29.89,West,271,2.3,2.3,47,0.00,,,0.00,0,TxWx,2013-02-05 21:08:00,
2013-02-05 16:10:00,48.3,29.0,29.90,SSW,204,1.9,2.0,46,0.00,,,0.00,0,TxWx,2013-02-05 21:10:00,
2013-02-05 16:12:00,48.2,28.8,29.89,WSW,248,2.3,3.0,46,0.00,,,0.00,0,TxWx,2013-02-05 21:12:00,
2013-02-05 16:13:00,48.1,29.1,29.89,WNW,285,2.6,3.0,47,0.00,,,0.00,0,TxWx,2013-02-05 21:13:00,
2013-02-05 16:15:00,48.1,29.4,29.89,West,264,1.5,1.5,48,0.00,,,0.00,0,TxWx,2013-02-05 21:15:00,
2013-02-05 16:17:00,48.1,29.5,29.90,WNW,291,1.1,1.1,48,0.00,,,0.00,0,TxWx,2013-02-05 21:17:00,
2013-02-05 16:18:00,48.5,29.6,29.90,WSW,240,2.3,2.3,47,0.00,,,0.00,0,TxWx,2013-02-05 21:18:00,
2013-02-05 16:20:00,48.3,29.1,29.90,WNW,294,5.3,5.3,47,0.00,,,0.00,0,TxWx,2013-02-05 21:20:00,
2013-02-05 16:22:00,48.2,28.3,29.90,West,262,3.0,4.0,45,0.00,,,0.00,0,TxWx,2013-02-05 21:22:00,
2013-02-05 16:23:00,48.1,28.5,29.90,SSW,197,1.9,2.0,46,0.00,,,0.00,0,TxWx,2013-02-05 21:23:00,
2013-02-05 16:25:00,48.1,28.9,29.90,SW,225,1.1,1.1,47,0.00,,,0.00,0,TxWx,2013-02-05 21:25:00,
2013-02-05 16:27:00,48.0,28.9,29.90,WSW,241,1.1,1.1,47,0.00,,,0.00,0,TxWx,2013-02-05 21:27:00,
2013-02-05 16:29:00,48.0,28.8,29.90,WNW,299,1.5,1.5,47,0.00,,,0.00,0,TxWx,2013-02-05 21:29:00,
2013-02-05 16:31:00,47.8,28.8,29.90,WSW,240,1.5,1.5,47,0.00,,,0.00,0,TxWx,2013-02-05 21:31:00,
2013-02-05 16:32:00,47.3,28.5,29.90,SW,214,2.6,2.6,47,0.00,,,0.00,0,TxWx,2013-02-05 21:32:00,
2013-02-05 16:34:00,47.2,28.4,29.90,SSE,150,3.0,4.0,47,0.00,,,0.00,0,TxWx,2013-02-05 21:34:00,
2013-02-05 16:36:00,47.2,28.3,29.90,WNW,288,0.7,1.0,47,0.00,,,0.00,0,TxWx,2013-02-05 21:36:00,
2013-02-05 16:37:00,47.3,28.7,29.90,SSW,193,0.7,0.0,48,0.00,,,0.00,0,TxWx,2013-02-05 21:37:00,
2013-02-05 16:38:00,47.3,28.7,29.90,WNW,303,1.1,1.1,48,0.00,,,0.00,0,TxWx,2013-02-05 21:38:00,
2013-02-05 16:39:00,47.0,28.9,29.90,West,266,1.1,1.1,48,0.00,,,0.00,0,TxWx,2013-02-05 21:39:00,
2013-02-05 16:41:00,47.2,28.6,29.90,WNW,288,4.6,4.6,48,0.00,,,0.00,0,TxWx,2013-02-05 21:41:00,
2013-02-05 16:42:00,47.2,28.3,29.90,South,190,1.9,2.0,47,0.00,,,0.00,0,TxWx,2013-02-05 21:42:00,
2013-02-05 16:43:00,47.2,28.3,29.90,South,184,1.1,1.1,47,0.00,,,0.00,0,TxWx,2013-02-05 21:43:00,
2013-02-05 16:44:00,47.2,28.6,29.90,SSW,201,1.1,1.1,48,0.00,,,0.00,0,TxWx,2013-02-05 21:44:00,
2013-02-05 16:47:00,47.0,28.5,29.90,South,189,1.5,1.5,48,0.00,,,0.00,0,TxWx,2013-02-05 21:47:00,
2013-02-05 16:48:00,46.8,28.7,29.90,South,191,2.3,2.3,49,0.00,,,0.00,0,TxWx,2013-02-05 21:48:00,
2013-02-05 16:49:00,46.8,28.4,29.90,SW,235,1.9,1.9,48,0.00,,,0.00,0,TxWx,2013-02-05 21:49:00,
2013-02-05 16:52:00,46.6,28.6,29.90,SW,224,0.7,1.0,49,0.00,,,0.00,0,TxWx,2013-02-05 21:52:00,
2013-02-05 16:53:00,46.5,28.9,29.90,WSW,255,1.1,1.1,50,0.00,,,0.00,0,TxWx,2013-02-05 21:53:00,
2013-02-05 16:54:00,46.4,28.7,29.90,NW,318,2.3,2.3,50,0.00,,,0.00,0,TxWx,2013-02-05 21:54:00,
2013-02-05 16:57:00,46.2,28.6,29.90,WSW,252,0.7,1.0,49,0.00,,,0.00,0,TxWx,2013-02-05 21:57:00,
2013-02-05 16:58:00,46.2,28.8,29.90,South,169,1.9,1.9,50,0.00,,,0.00,0,TxWx,2013-02-05 21:58:00,
2013-02-05 16:59:00,46.3,28.7,29.90,South,178,0.7,1.0,50,0.00,,,0.00,0,TxWx,2013-02-05 21:59:00,
2013-02-05 17:03:00,46.3,28.7,29.90,SSW,210,1.5,1.5,50,0.00,,,0.00,0,TxWx,2013-02-05 22:03:00,
2013-02-05 17:04:00,46.0,28.4,29.90,South,171,1.9,1.9,49,0.00,,,0.00,0,TxWx,2013-02-05 22:04:00,
2013-02-05 17:08:00,46.4,28.3,29.90,South,179,1.1,1.1,49,0.00,,,0.00,0,TxWx,2013-02-05 22:08:00,
2013-02-05 17:09:00,46.4,28.4,29.90,South,183,0.7,1.0,49,0.00,,,0.00,0,TxWx,2013-02-05 22:09:00,
2013-02-05 17:13:00,46.0,28.7,29.90,SSW,208,2.6,3.0,50,0.00,,,0.00,0,TxWx,2013-02-05 22:13:00,
2013-02-05 17:14:00,45.9,28.6,29.90,WNW,291,1.5,1.5,50,0.00,,,0.00,0,TxWx,2013-02-05 22:14:00,
2013-02-05 17:18:00,46.1,28.5,29.90,South,172,2.3,2.3,49,0.00,,,0.00,0,TxWx,2013-02-05 22:18:00,
2013-02-05 17:19:00,46.2,28.3,29.90,SSE,168,1.5,1.5,49,0.00,,,0.00,0,TxWx,2013-02-05 22:19:00,
2013-02-05 17:23:00,46.4,28.1,29.90,WSW,245,1.9,1.9,48,0.00,,,0.00,0,TxWx,2013-02-05 22:23:00,
2013-02-05 17:24:00,46.4,28.1,29.90,South,170,3.8,3.8,48,0.00,,,0.00,0,TxWx,2013-02-05 22:24:00,
2013-02-05 17:25:00,46.3,27.9,29.90,SW,232,1.1,1.1,48,0.00,,,0.00,0,TxWx,2013-02-05 22:25:00,
2013-02-05 17:28:00,46.0,28.2,29.90,WSW,252,1.5,1.5,49,0.00,,,0.00,0,TxWx,2013-02-05 22:28:00,
2013-02-05 17:29:00,46.0,28.2,29.90,West,271,1.1,1.1,49,0.00,,,0.00,0,TxWx,2013-02-05 22:29:00,
2013-02-05 17:30:00,45.9,28.3,29.90,SSW,196,1.9,1.9,49,0.00,,,0.00,0,TxWx,2013-02-05 22:30:00,
2013-02-05 17:34:00,45.3,28.1,29.90,SW,219,1.9,1.9,50,0.00,,,0.00,0,TxWx,2013-02-05 22:34:00,
2013-02-05 17:35:00,45.1,28.4,29.90,SSE,165,0.7,0.0,51,0.00,,,0.00,0,TxWx,2013-02-05 22:35:00,
2013-02-05 17:39:00,44.8,28.4,29.90,SSW,212,0.7,0.0,52,0.00,,,0.00,0,TxWx,2013-02-05 22:39:00,
2013-02-05 17:40:00,44.8,28.5,29.90,SW,222,2.6,3.0,52,0.00,,,0.00,0,TxWx,2013-02-05 22:40:00,
2013-02-05 17:44:00,44.2,28.4,29.90,SE,131,1.9,1.9,53,0.00,,,0.00,0,TxWx,2013-02-05 22:44:00,
2013-02-05 17:45:00,44.4,27.9,29.90,South,187,1.1,1.1,52,0.00,,,0.00,0,TxWx,2013-02-05 22:45:00,
2013-02-05 17:49:00,43.9,28.4,29.90,SSW,203,1.1,1.1,54,0.00,,,0.00,0,TxWx,2013-02-05 22:49:00,
2013-02-05 17:50:00,43.9,28.2,29.90,SW,216,1.5,1.5,53,0.00,,,0.00,0,TxWx,2013-02-05 22:50:00,
2013-02-05 17:54:00,43.6,28.2,29.90,South,186,0.0,0.0,54,0.00,,,0.00,0,TxWx,2013-02-05 22:54:00,
2013-02-05 17:55:00,43.6,28.2,29.90,South,178,1.1,1.1,54,0.00,,,0.00,0,TxWx,2013-02-05 22:55:00,
2013-02-05 17:59:00,43.3,28.1,29.90,SSW,212,2.6,2.6,54,0.00,,,0.00,0,TxWx,2013-02-05 22:59:00,
2013-02-05 18:00:00,43.3,28.1,29.90,SSW,195,1.1,1.1,54,0.00,,,0.00,0,TxWx,2013-02-05 23:00:00,
2013-02-05 18:04:00,43.4,27.9,29.90,South,187,0.7,0.0,54,0.00,,,0.00,0,TxWx,2013-02-05 23:04:00,
2013-02-05 18:05:00,43.3,28.1,29.90,SSW,195,1.1,1.1,54,0.00,,,0.00,0,TxWx,2013-02-05 23:05:00,
2013-02-05 18:09:00,43.0,28.1,29.90,SW,218,1.1,1.1,55,0.00,,,0.00,0,TxWx,2013-02-05 23:09:00,
2013-02-05 18:11:00,42.8,28.1,29.90,South,187,2.3,2.3,55,0.00,,,0.00,0,TxWx,2013-02-05 23:11:00,
2013-02-05 18:14:00,42.6,28.1,29.90,South,184,0.7,0.0,56,0.00,,,0.00,0,TxWx,2013-02-05 23:14:00,
2013-02-05 18:15:00,42.6,28.1,29.90,SSW,198,0.7,1.0,56,0.00,,,0.00,0,TxWx,2013-02-05 23:15:00,
2013-02-05 18:16:00,42.5,28.0,29.90,SW,217,0.7,1.0,56,0.00,,,0.00,0,TxWx,2013-02-05 23:16:00,
2013-02-05 18:20:00,42.3,28.1,29.91,SSE,157,1.5,1.5,56,0.00,,,0.00,0,TxWx,2013-02-05 23:20:00,
2013-02-05 18:21:00,42.6,27.4,29.91,SSW,200,0.3,0.0,54,0.00,,,0.00,0,TxWx,2013-02-05 23:21:00,
2013-02-05 18:25:00,42.5,27.7,29.91,SW,231,0.7,0.0,55,0.00,,,0.00,0,TxWx,2013-02-05 23:25:00,
2013-02-05 18:26:00,42.7,27.4,29.91,NNE,19,0.7,1.0,54,0.00,,,0.00,0,TxWx,2013-02-05 23:26:00,
2013-02-05 18:30:00,42.6,27.3,29.91,SW,234,0.7,0.0,54,0.00,,,0.00,0,TxWx,2013-02-05 23:30:00,
2013-02-05 18:31:00,42.7,27.3,29.91,SW,226,0.7,0.0,54,0.00,,,0.00,0,TxWx,2013-02-05 23:31:00,
2013-02-05 18:35:00,42.6,27.3,29.91,SW,218,0.7,1.0,54,0.00,,,0.00,0,TxWx,2013-02-05 23:35:00,
2013-02-05 18:36:00,42.5,27.3,29.91,South,171,1.1,1.1,54,0.00,,,0.00,0,TxWx,2013-02-05 23:36:00,
2013-02-05 18:37:00,42.5,27.3,29.91,SE,131,1.1,1.1,54,0.00,,,0.00,0,TxWx,2013-02-05 23:37:00,
2013-02-05 18:40:00,42.8,27.2,29.91,West,266,0.7,0.0,53,0.00,,,0.00,0,TxWx,2013-02-05 23:40:00,
2013-02-05 18:42:00,42.7,27.2,29.91,WSW,252,0.7,0.0,53,0.00,,,0.00,0,TxWx,2013-02-05 23:42:00,
2013-02-05 18:46:00,42.6,26.7,29.92,West,273,1.1,1.1,53,0.00,,,0.00,0,TxWx,2013-02-05 23:46:00,
2013-02-05 18:47:00,42.6,26.8,29.92,SSW,209,1.5,1.5,53,0.00,,,0.00,0,TxWx,2013-02-05 23:47:00,
2013-02-05 18:51:00,42.7,26.6,29.92,SW,233,0.7,1.0,52,0.00,,,0.00,0,TxWx,2013-02-05 23:51:00,
2013-02-05 18:52:00,42.6,26.6,29.92,SSE,147,2.3,2.3,52,0.00,,,0.00,0,TxWx,2013-02-05 23:52:00,
2013-02-05 18:56:00,42.5,26.5,29.92,South,178,1.9,1.9,52,0.00,,,0.00,0,TxWx,2013-02-05 23:56:00,
2013-02-05 18:57:00,42.6,26.6,29.92,WNW,285,0.3,0.0,52,0.00,,,0.00,0,TxWx,2013-02-05 23:57:00,
2013-02-05 18:58:00,42.6,26.4,29.92,SW,224,1.5,1.5,52,0.00,,,0.00,0,TxWx,2013-02-05 23:58:00,
2013-02-05 19:01:00,42.5,26.4,29.92,SSW,203,0.3,0.0,52,0.00,,,0.00,0,TxWx,2013-02-06 00:01:00,
2013-02-05 19:02:00,42.6,26.5,29.92,SSW,202,0.3,0.0,52,0.00,,,0.00,0,TxWx,2013-02-06 00:02:00,
2013-02-05 19:03:00,42.6,26.3,29.92,WNW,293,0.7,1.0,52,0.00,,,0.00,0,TxWx,2013-02-06 00:03:00,
2013-02-05 19:06:00,42.3,26.4,29.92,SSE,149,1.5,1.5,53,0.00,,,0.00,0,TxWx,2013-02-06 00:06:00,
2013-02-05 19:07:00,42.3,26.4,29.92,SE,139,0.3,0.0,53,0.00,,,0.00,0,TxWx,2013-02-06 00:07:00,
2013-02-05 19:08:00,42.3,26.6,29.92,SW,214,2.3,2.3,53,0.00,,,0.00,0,TxWx,2013-02-06 00:08:00,
2013-02-05 19:11:00,42.3,26.3,29.92,WSW,240,0.3,0.0,52,0.00,,,0.00,0,TxWx,2013-02-06 00:11:00,
2013-02-05 19:12:00,42.3,26.3,29.92,SW,221,2.3,2.3,52,0.00,,,0.00,0,TxWx,2013-02-06 00:12:00,
2013-02-05 19:13:00,42.2,26.5,29.92,SSW,212,1.5,1.5,53,0.00,,,0.00,0,TxWx,2013-02-06 00:13:00,
2013-02-05 19:16:00,42.2,26.5,29.92,WSW,256,1.5,1.5,53,0.00,,,0.00,0,TxWx,2013-02-06 00:16:00,
2013-02-05 19:17:00,42.2,26.4,29.92,West,268,1.1,1.1,53,0.00,,,0.00,0,TxWx,2013-02-06 00:17:00,
2013-02-05 19:18:00,42.2,26.6,29.92,SW,226,0.7,0.0,53,0.00,,,0.00,0,TxWx,2013-02-06 00:18:00,
2013-02-05 19:21:00,42.0,26.6,29.92,WSW,238,2.6,2.6,54,0.00,,,0.00,0,TxWx,2013-02-06 00:21:00,
2013-02-05 19:22:00,42.1,26.5,29.92,SSW,211,4.9,5.0,53,0.00,,,0.00,0,TxWx,2013-02-06 00:22:00,
2013-02-05 19:23:00,42.9,26.6,29.92,WNW,283,0.7,1.0,52,0.00,,,0.00,0,TxWx,2013-02-06 00:23:00,
2013-02-05 19:26:00,42.5,26.7,29.92,West,259,0.7,0.0,53,0.00,,,0.00,0,TxWx,2013-02-06 00:26:00,
2013-02-05 19:27:00,42.5,26.7,29.92,WNW,282,2.3,2.3,53,0.00,,,0.00,0,TxWx,2013-02-06 00:27:00,
2013-02-05 19:28:00,42.6,26.5,29.92,SSE,166,1.1,1.1,52,0.00,,,0.00,0,TxWx,2013-02-06 00:28:00,
2013-02-05 19:31:00,42.6,26.5,29.92,SSW,213,1.1,1.1,52,0.00,,,0.00,0,TxWx,2013-02-06 00:31:00,
2013-02-05 19:32:00,42.6,26.4,29.92,SW,216,0.7,1.0,52,0.00,,,0.00,0,TxWx,2013-02-06 00:32:00,
2013-02-05 19:35:00,42.6,26.6,29.92,SSW,207,1.5,1.5,52,0.00,,,0.00,0,TxWx,2013-02-06 00:35:00,
2013-02-05 19:36:00,42.7,26.6,29.92,WSW,255,1.9,1.9,52,0.00,,,0.00,0,TxWx,2013-02-06 00:36:00,
2013-02-05 19:37:00,42.4,26.7,29.92,SE,129,2.3,2.3,53,0.00,,,0.00,0,TxWx,2013-02-06 00:37:00,
2013-02-05 19:38:00,42.4,26.7,29.92,WNW,289,0.7,0.0,53,0.00,,,0.00,0,TxWx,2013-02-06 00:38:00,
2013-02-05 19:40:00,42.4,26.6,29.92,SW,228,1.5,1.5,53,0.00,,,0.00,0,TxWx,2013-02-06 00:40:00,
2013-02-05 19:41:00,42.4,26.8,29.92,WNW,293,1.5,1.5,53,0.00,,,0.00,0,TxWx,2013-02-06 00:41:00,
2013-02-05 19:42:00,42.3,26.9,29.92,SW,217,2.6,2.6,54,0.00,,,0.00,0,TxWx,2013-02-06 00:42:00,
2013-02-05 19:43:00,42.3,26.9,29.92,NNE,22,1.1,1.1,54,0.00,,,0.00,0,TxWx,2013-02-06 00:43:00,
2013-02-05 19:45:00,42.2,27.2,29.92,SW,233,1.5,1.5,54,0.00,,,0.00,0,TxWx,2013-02-06 00:45:00,
2013-02-05 19:47:00,42.1,27.2,29.92,South,187,2.3,2.3,55,0.00,,,0.00,0,TxWx,2013-02-06 00:47:00,
2013-02-05 19:48:00,42.3,27.1,29.92,South,190,0.3,0.0,54,0.00,,,0.00,0,TxWx,2013-02-06 00:48:00,
2013-02-05 19:50:00,42.5,27.6,29.92,SW,222,1.1,1.1,55,0.00,,,0.00,0,TxWx,2013-02-06 00:50:00,
2013-02-05 19:52:00,42.6,27.5,29.92,SSW,203,0.3,0.0,54,0.00,,,0.00,0,TxWx,2013-02-06 00:52:00,
2013-02-05 19:53:00,42.5,27.7,29.92,WNW,298,1.9,1.9,55,0.00,,,0.00,0,TxWx,2013-02-06 00:53:00,
2013-02-05 19:55:00,41.7,27.5,29.92,West,263,2.6,2.6,56,0.00,,,0.00,0,TxWx,2013-02-06 00:55:00,
2013-02-05 19:57:00,42.0,27.7,29.92,SW,224,0.7,0.0,56,0.00,,,0.00,0,TxWx,2013-02-06 00:57:00,
2013-02-05 19:58:00,42.0,27.7,29.92,South,183,1.5,1.5,56,0.00,,,0.00,0,TxWx,2013-02-06 00:58:00,
2013-02-05 20:00:00,42.3,28.0,29.92,WNW,293,0.7,0.0,56,0.00,,,0.00,0,TxWx,2013-02-06 01:00:00,
2013-02-05 20:02:00,42.2,28.2,29.93,SW,228,0.0,0.0,57,0.00,,,0.00,0,TxWx,2013-02-06 01:02:00,
2013-02-05 20:03:00,42.0,28.2,29.93,SW,223,1.5,1.5,57,0.00,,,0.00,0,TxWx,2013-02-06 01:03:00,
2013-02-05 20:06:00,41.9,28.4,29.93,South,191,1.5,1.5,58,0.00,,,0.00,0,TxWx,2013-02-06 01:06:00,
2013-02-05 20:07:00,42.0,28.6,29.93,WSW,247,1.9,2.0,58,0.00,,,0.00,0,TxWx,2013-02-06 01:07:00,
2013-02-05 20:09:00,42.1,28.7,29.93,WNW,302,1.5,2.0,58,0.00,,,0.00,0,TxWx,2013-02-06 01:09:00,
2013-02-05 20:11:00,42.0,29.0,29.93,WSW,248,0.7,0.0,59,0.00,,,0.00,0,TxWx,2013-02-06 01:11:00,
2013-02-05 20:12:00,42.0,29.2,29.93,South,178,1.1,1.1,60,0.00,,,0.00,0,TxWx,2013-02-06 01:12:00,
2013-02-05 20:13:00,42.0,29.2,29.93,SSE,166,1.1,1.1,60,0.00,,,0.00,0,TxWx,2013-02-06 01:13:00,
2013-02-05 20:14:00,42.4,29.4,29.93,WSW,246,2.6,3.0,59,0.00,,,0.00,0,TxWx,2013-02-06 01:14:00,
2013-02-05 20:16:00,43.3,29.7,29.93,SW,234,1.5,1.5,58,0.00,,,0.00,0,TxWx,2013-02-06 01:16:00,
2013-02-05 20:18:00,43.1,29.5,29.93,SSE,156,0.3,0.0,58,0.00,,,0.00,0,TxWx,2013-02-06 01:18:00,
2013-02-05 20:19:00,43.0,29.5,29.93,NW,311,1.1,1.1,58,0.00,,,0.00,0,TxWx,2013-02-06 01:19:00,
2013-02-05 20:21:00,43.1,29.4,29.93,WNW,295,1.5,1.5,58,0.00,,,0.00,0,TxWx,2013-02-06 01:21:00,
2013-02-05 20:23:00,43.1,29.4,29.93,NNE,14,0.7,0.0,58,0.00,,,0.00,0,TxWx,2013-02-06 01:23:00,
2013-02-05 20:24:00,43.1,29.4,29.93,WNW,299,0.7,0.0,58,0.00,,,0.00,0,TxWx,2013-02-06 01:24:00,
2013-02-05 20:26:00,43.0,29.3,29.93,WNW,302,1.5,1.5,58,0.00,,,0.00,0,TxWx,2013-02-06 01:26:00,
2013-02-05 20:28:00,42.7,29.1,29.93,SSE,153,2.3,2.3,58,0.00,,,0.00,0,TxWx,2013-02-06 01:28:00,
2013-02-05 20:29:00,42.8,29.1,29.93,SSE,160,0.7,1.0,58,0.00,,,0.00,0,TxWx,2013-02-06 01:29:00,
2013-02-05 20:31:00,42.7,29.2,29.93,WNW,298,0.3,0.0,58,0.00,,,0.00,0,TxWx,2013-02-06 01:31:00,
2013-02-05 20:33:00,42.4,29.0,29.93,SW,214,0.7,0.0,58,0.00,,,0.00,0,TxWx,2013-02-06 01:33:00,
2013-02-05 20:34:00,42.3,29.0,29.93,South,172,1.5,1.5,59,0.00,,,0.00,0,TxWx,2013-02-06 01:34:00,
2013-02-05 20:37:00,42.1,28.9,29.93,SE,141,0.3,0.0,59,0.00,,,0.00,0,TxWx,2013-02-06 01:37:00,
2013-02-05 20:38:00,41.8,28.9,29.93,WSW,238,1.1,1.1,59,0.00,,,0.00,0,TxWx,2013-02-06 01:38:00,
2013-02-05 20:39:00,41.7,28.9,29.93,West,259,1.5,1.5,60,0.00,,,0.00,0,TxWx,2013-02-06 01:39:00,
2013-02-05 20:42:00,41.4,28.9,29.93,South,171,0.7,1.0,61,0.00,,,0.00,0,TxWx,2013-02-06 01:42:00,
2013-02-05 20:43:00,41.3,28.9,29.93,SSE,168,1.5,1.5,61,0.00,,,0.00,0,TxWx,2013-02-06 01:43:00,
2013-02-05 20:44:00,41.3,28.9,29.93,South,183,1.5,1.5,61,0.00,,,0.00,0,TxWx,2013-02-06 01:44:00,
2013-02-05 20:45:00,41.2,28.9,29.93,SSE,165,1.1,1.1,61,0.00,,,0.00,0,TxWx,2013-02-06 01:45:00,
2013-02-05 20:47:00,41.1,29.0,29.93,SSW,200,1.1,1.1,61,0.00,,,0.00,0,TxWx,2013-02-06 01:47:00,
2013-02-05 20:48:00,41.1,29.0,29.93,SSE,159,1.1,1.1,61,0.00,,,0.00,0,TxWx,2013-02-06 01:48:00,
2013-02-05 20:49:00,41.1,29.1,29.93,SSE,167,0.3,0.0,61,0.00,,,0.00,0,TxWx,2013-02-06 01:49:00,
2013-02-05 20:50:00,41.1,29.1,29.94,SW,227,0.0,0.0,62,0.00,,,0.00,0,TxWx,2013-02-06 01:50:00,
2013-02-05 20:52:00,41.0,29.1,29.94,South,174,1.5,1.5,62,0.00,,,0.00,0,TxWx,2013-02-06 01:52:00,
2013-02-05 20:53:00,41.0,29.3,29.94,SE,143,0.7,1.0,62,0.00,,,0.00,0,TxWx,2013-02-06 01:53:00,
2013-02-05 20:55:00,41.1,29.4,29.94,SE,140,1.1,1.1,62,0.00,,,0.00,0,TxWx,2013-02-06 01:55:00,
2013-02-05 20:57:00,41.0,29.5,29.94,South,180,0.3,0.0,63,0.00,,,0.00,0,TxWx,2013-02-06 01:57:00,
2013-02-05 20:58:00,41.1,29.6,29.94,South,190,0.7,0.0,63,0.00,,,0.00,0,TxWx,2013-02-06 01:58:00,
2013-02-05 21:00:00,41.0,29.6,29.94,SE,131,2.6,3.0,63,0.00,,,0.00,0,TxWx,2013-02-06 02:00:00,
2013-02-05 21:02:00,41.3,29.6,29.94,South,181,2.3,0.0,62,0.00,,,0.00,0,TxWx,2013-02-06 02:02:00,
2013-02-05 21:04:00,41.3,29.6,29.94,South,176,1.5,0.0,62,0.00,,,0.00,0,TxWx,2013-02-06 02:04:00,
2013-02-05 21:05:00,41.5,29.7,29.94,SW,218,1.5,1.5,62,0.00,,,0.00,0,TxWx,2013-02-06 02:05:00,
2013-02-05 21:08:00,41.4,29.7,29.94,SSW,195,1.1,1.1,62,0.00,,,0.00,0,TxWx,2013-02-06 02:08:00,
2013-02-05 21:09:00,41.5,29.7,29.94,SSW,212,2.3,2.3,62,0.00,,,0.00,0,TxWx,2013-02-06 02:09:00,
2013-02-05 21:10:00,41.4,29.7,29.94,South,180,1.5,1.5,62,0.00,,,0.00,0,TxWx,2013-02-06 02:10:00,
2013-02-05 21:13:00,41.4,29.7,29.94,SE,139,1.5,1.5,62,0.00,,,0.00,0,TxWx,2013-02-06 02:13:00,
2013-02-05 21:14:00,41.5,29.7,29.94,SSE,163,1.1,1.1,62,0.00,,,0.00,0,TxWx,2013-02-06 02:14:00,
2013-02-05 21:15:00,41.5,29.7,29.94,South,189,1.5,1.5,62,0.00,,,0.00,0,TxWx,2013-02-06 02:15:00,
2013-02-05 21:16:00,41.5,29.7,29.94,SE,144,1.5,1.5,62,0.00,,,0.00,0,TxWx,2013-02-06 02:16:00,
2013-02-05 21:18:00,41.4,29.6,29.94,South,183,0.3,0.0,62,0.00,,,0.00,0,TxWx,2013-02-06 02:18:00,
2013-02-05 21:19:00,41.4,29.7,29.94,SW,225,1.1,1.1,62,0.00,,,0.00,0,TxWx,2013-02-06 02:19:00,
2013-02-05 21:20:00,41.3,29.7,29.94,South,184,0.3,0.0,63,0.00,,,0.00,0,TxWx,2013-02-06 02:20:00,
2013-02-05 21:21:00,41.2,29.7,29.94,South,184,0.0,0.0,63,0.00,,,0.00,0,TxWx,2013-02-06 02:21:00,
2013-02-05 21:23:00,41.0,29.5,29.94,South,178,1.5,1.5,63,0.00,,,0.00,0,TxWx,2013-02-06 02:23:00,
2013-02-05 21:24:00,41.1,29.5,29.95,SSE,166,1.5,1.5,63,0.00,,,0.00,0,TxWx,2013-02-06 02:24:00,
2013-02-05 21:26:00,41.1,29.5,29.95,South,175,1.1,1.1,63,0.00,,,0.00,0,TxWx,2013-02-06 02:26:00,
2013-02-05 21:28:00,41.1,29.5,29.95,South,186,0.7,0.0,63,0.00,,,0.00,0,TxWx,2013-02-06 02:28:00,
2013-02-05 21:29:00,41.1,29.5,29.95,SSW,193,1.1,1.1,63,0.00,,,0.00,0,TxWx,2013-02-06 02:29:00,
2013-02-05 21:31:00,41.1,29.5,29.95,SE,146,1.1,1.1,63,0.00,,,0.00,0,TxWx,2013-02-06 02:31:00,
2013-02-05 21:33:00,40.9,29.5,29.95,South,179,1.1,1.1,63,0.00,,,0.00,0,TxWx,2013-02-06 02:33:00,
2013-02-05 21:34:00,40.8,29.5,29.95,SSW,211,1.9,1.9,63,0.00,,,0.00,0,TxWx,2013-02-06 02:34:00,
2013-02-05 21:36:00,40.8,29.5,29.95,SW,235,1.1,1.1,63,0.00,,,0.00,0,TxWx,2013-02-06 02:36:00,
2013-02-05 21:37:00,40.7,29.5,29.95,SSE,148,1.5,1.5,63,0.00,,,0.00,0,TxWx,2013-02-06 02:37:00,
2013-02-05 21:38:00,40.6,29.5,29.95,South,188,1.5,1.5,64,0.00,,,0.00,0,TxWx,2013-02-06 02:38:00,
2013-02-05 21:39:00,40.5,29.4,29.95,South,174,2.3,2.3,64,0.00,,,0.00,0,TxWx,2013-02-06 02:39:00,
2013-02-05 21:41:00,40.5,29.5,29.95,SSE,157,1.5,1.5,64,0.00,,,0.00,0,TxWx,2013-02-06 02:41:00,
2013-02-05 21:42:00,40.5,29.5,29.95,SW,220,0.3,0.0,64,0.00,,,0.00,0,TxWx,2013-02-06 02:42:00,
2013-02-05 21:44:00,40.4,29.5,29.95,SSE,159,1.9,1.9,64,0.00,,,0.00,0,TxWx,2013-02-06 02:44:00,
2013-02-05 21:46:00,40.5,29.6,29.95,SSW,213,1.5,1.5,64,0.00,,,0.00,0,TxWx,2013-02-06 02:46:00,
2013-02-05 21:47:00,40.5,29.6,29.95,SSE,158,1.9,1.9,64,0.00,,,0.00,0,TxWx,2013-02-06 02:47:00,
2013-02-05 21:49:00,40.5,29.6,29.95,SSE,154,2.6,3.0,64,0.00,,,0.00,0,TxWx,2013-02-06 02:49:00,
2013-02-05 21:51:00,40.5,29.6,29.95,South,173,1.9,1.9,64,0.00,,,0.00,0,TxWx,2013-02-06 02:51:00,
2013-02-05 21:52:00,40.5,29.6,29.95,SSE,167,1.5,1.5,64,0.00,,,0.00,0,TxWx,2013-02-06 02:52:00,
2013-02-05 21:54:00,40.5,29.6,29.95,SSW,212,0.7,0.0,64,0.00,,,0.00,0,TxWx,2013-02-06 02:54:00,
2013-02-05 21:57:00,40.5,29.4,29.95,South,184,1.1,1.1,64,0.00,,,0.00,0,TxWx,2013-02-06 02:57:00,
2013-02-05 21:59:00,40.5,29.7,29.95,South,191,1.1,1.1,65,0.00,,,0.00,0,TxWx,2013-02-06 02:59:00,
2013-02-05 22:00:00,40.5,29.7,29.95,South,172,1.5,1.5,65,0.00,,,0.00,0,TxWx,2013-02-06 03:00:00,
2013-02-05 22:02:00,40.5,29.8,29.95,West,271,1.1,1.1,65,0.00,,,0.00,0,TxWx,2013-02-06 03:02:00,
2013-02-05 22:04:00,40.3,29.8,29.95,South,189,1.1,1.1,65,0.00,,,0.00,0,TxWx,2013-02-06 03:04:00,
2013-02-05 22:05:00,40.3,29.8,29.95,SW,228,1.1,1.1,65,0.00,,,0.00,0,TxWx,2013-02-06 03:05:00,
2013-02-05 22:07:00,40.1,29.8,29.95,SSE,153,3.0,3.0,66,0.00,,,0.00,0,TxWx,2013-02-06 03:07:00,
2013-02-05 22:09:00,40.0,29.8,29.95,SSW,195,1.1,1.1,66,0.00,,,0.00,0,TxWx,2013-02-06 03:09:00,
2013-02-05 22:12:00,39.9,29.9,29.95,SW,228,1.1,1.1,67,0.00,,,0.00,0,TxWx,2013-02-06 03:12:00,
2013-02-05 22:14:00,39.9,29.9,29.95,South,190,1.5,1.5,67,0.00,,,0.00,0,TxWx,2013-02-06 03:14:00,
2013-02-05 22:15:00,39.9,29.9,29.95,South,170,1.9,1.9,67,0.00,,,0.00,0,TxWx,2013-02-06 03:15:00,
2013-02-05 22:17:00,39.9,30.1,29.95,SSE,156,0.7,0.0,67,0.00,,,0.00,0,TxWx,2013-02-06 03:17:00,
2013-02-05 22:18:00,39.9,30.1,29.95,SSE,166,0.7,1.0,67,0.00,,,0.00,0,TxWx,2013-02-06 03:18:00,
2013-02-05 22:20:00,39.8,30.0,29.95,SW,226,1.9,1.9,67,0.00,,,0.00,0,TxWx,2013-02-06 03:20:00,
2013-02-05 22:22:00,39.8,30.1,29.96,SE,136,1.9,1.9,67,0.00,,,0.00,0,TxWx,2013-02-06 03:22:00,
2013-02-05 22:23:00,39.8,30.1,29.96,SE,128,2.6,2.6,67,0.00,,,0.00,0,TxWx,2013-02-06 03:23:00,
2013-02-05 22:25:00,39.9,30.2,29.96,SSE,162,1.9,1.9,68,0.00,,,0.00,0,TxWx,2013-02-06 03:25:00,
2013-02-05 22:27:00,40.0,30.3,29.96,SSE,160,1.1,1.1,68,0.00,,,0.00,0,TxWx,2013-02-06 03:27:00,
2013-02-05 22:28:00,40.0,30.3,29.96,SW,232,0.7,1.0,68,0.00,,,0.00,0,TxWx,2013-02-06 03:28:00,
2013-02-05 22:30:00,40.0,30.3,29.96,SW,221,1.1,1.1,68,0.00,,,0.00,0,TxWx,2013-02-06 03:30:00,
2013-02-05 22:32:00,40.0,30.3,29.95,SSW,203,1.1,1.1,68,0.00,,,0.00,0,TxWx,2013-02-06 03:32:00,
2013-02-05 22:33:00,39.9,30.2,29.95,South,178,1.1,1.1,68,0.00,,,0.00,0,TxWx,2013-02-06 03:33:00,
2013-02-05 22:35:00,39.8,30.2,29.95,SE,139,3.4,3.4,68,0.00,,,0.00,0,TxWx,2013-02-06 03:35:00,
2013-02-05 22:38:00,39.8,30.4,29.95,SE,140,1.1,1.1,68,0.00,,,0.00,0,TxWx,2013-02-06 03:38:00,
2013-02-05 22:40:00,39.9,30.3,29.95,SSE,164,1.5,1.5,68,0.00,,,0.00,0,TxWx,2013-02-06 03:40:00,
2013-02-05 22:43:00,39.7,30.3,29.95,SE,144,1.1,1.1,68,0.00,,,0.00,0,TxWx,2013-02-06 03:43:00,
2013-02-05 22:45:00,39.6,30.3,29.95,SE,146,1.5,1.5,69,0.00,,,0.00,0,TxWx,2013-02-06 03:45:00,
2013-02-05 22:48:00,39.6,30.5,29.95,WNW,297,2.3,2.3,69,0.00,,,0.00,0,TxWx,2013-02-06 03:48:00,
2013-02-05 22:50:00,39.5,30.5,29.95,South,179,1.1,1.1,69,0.00,,,0.00,0,TxWx,2013-02-06 03:50:00,
2013-02-05 22:53:00,39.5,30.6,29.95,SSE,161,2.3,3.0,70,0.00,,,0.00,0,TxWx,2013-02-06 03:53:00,
2013-02-05 22:55:00,39.4,30.5,29.95,SSE,151,1.9,1.9,70,0.00,,,0.00,0,TxWx,2013-02-06 03:55:00,
2013-02-05 22:56:00,39.4,30.5,29.95,SE,144,1.5,1.5,70,0.00,,,0.00,0,TxWx,2013-02-06 03:56:00,
2013-02-05 22:58:00,39.5,30.7,29.95,South,169,2.3,2.3,70,0.00,,,0.00,0,TxWx,2013-02-06 03:58:00,
2013-02-05 22:59:00,39.5,30.7,29.95,SSE,163,2.6,3.0,70,0.00,,,0.00,0,TxWx,2013-02-06 03:59:00,
2013-02-05 23:01:00,39.5,30.7,29.95,NW,304,0.0,0.0,70,0.00,,,0.00,0,TxWx,2013-02-06 04:01:00,
2013-02-05 23:03:00,39.3,30.5,29.95,South,179,1.1,1.1,70,0.00,,,0.00,0,TxWx,2013-02-06 04:03:00,
2013-02-05 23:04:00,39.3,30.5,29.95,SSE,158,1.1,1.1,70,0.00,,,0.00,0,TxWx,2013-02-06 04:04:00,
2013-02-05 23:06:00,39.5,30.9,29.95,SSE,168,1.5,1.5,70,0.00,,,0.00,0,TxWx,2013-02-06 04:06:00,
2013-02-05 23:09:00,39.5,30.9,29.95,South,183,1.1,1.1,71,0.00,,,0.00,0,TxWx,2013-02-06 04:09:00,
2013-02-05 23:11:00,39.5,30.9,29.95,South,187,2.3,2.3,71,0.00,,,0.00,0,TxWx,2013-02-06 04:11:00,
2013-02-05 23:14:00,39.3,30.9,29.95,SSW,199,1.5,1.5,71,0.00,,,0.00,0,TxWx,2013-02-06 04:14:00,
2013-02-05 23:16:00,39.3,30.9,29.95,SSW,212,0.7,1.0,71,0.00,,,0.00,0,TxWx,2013-02-06 04:16:00,
2013-02-05 23:19:00,39.2,31.0,29.95,SSW,202,1.5,1.5,72,0.00,,,0.00,0,TxWx,2013-02-06 04:19:00,
2013-02-05 23:21:00,39.2,31.0,29.95,South,182,1.5,1.5,72,0.00,,,0.00,0,TxWx,2013-02-06 04:21:00,
2013-02-05 23:24:00,39.3,31.3,29.95,SE,144,0.7,1.0,72,0.00,,,0.00,0,TxWx,2013-02-06 04:24:00,
2013-02-05 23:26:00,39.4,31.4,29.95,SW,221,1.5,1.5,72,0.00,,,0.00,0,TxWx,2013-02-06 04:26:00,
2013-02-05 23:29:00,39.6,31.5,29.95,SSE,154,3.0,3.0,72,0.00,,,0.00,0,TxWx,2013-02-06 04:29:00,
2013-02-05 23:30:00,39.6,31.5,29.95,SSE,147,2.6,3.0,72,0.00,,,0.00,0,TxWx,2013-02-06 04:30:00,
2013-02-05 23:31:00,39.7,31.5,29.95,South,187,1.9,1.9,72,0.00,,,0.00,0,TxWx,2013-02-06 04:31:00,
2013-02-05 23:34:00,39.7,31.4,29.96,SSE,154,1.1,1.1,72,0.00,,,0.00,0,TxWx,2013-02-06 04:34:00,
2013-02-05 23:35:00,39.6,31.4,29.96,South,185,1.5,1.5,72,0.00,,,0.00,0,TxWx,2013-02-06 04:35:00,
2013-02-05 23:36:00,39.6,31.4,29.96,SSE,160,1.5,1.5,72,0.00,,,0.00,0,TxWx,2013-02-06 04:36:00,
2013-02-05 23:39:00,39.6,31.4,29.96,South,179,0.0,0.0,72,0.00,,,0.00,0,TxWx,2013-02-06 04:39:00,
2013-02-05 23:41:00,39.7,31.5,29.96,West,281,0.7,1.0,72,0.00,,,0.00,0,TxWx,2013-02-06 04:41:00,
2013-02-05 23:42:00,39.4,31.2,29.96,SW,222,1.9,1.9,72,0.00,,,0.00,0,TxWx,2013-02-06 04:42:00,
2013-02-05 23:45:00,39.3,31.5,29.95,SSE,165,1.5,1.5,73,0.00,,,0.00,0,TxWx,2013-02-06 04:45:00,
2013-02-05 23:46:00,39.3,31.5,29.95,SW,232,0.3,0.0,73,0.00,,,0.00,0,TxWx,2013-02-06 04:46:00,
2013-02-05 23:47:00,39.3,31.5,29.95,SW,226,1.1,1.1,73,0.00,,,0.00,0,TxWx,2013-02-06 04:47:00,
2013-02-05 23:50:00,39.2,31.5,29.95,South,172,2.3,2.3,73,0.00,,,0.00,0,TxWx,2013-02-06 04:50:00,
2013-02-05 23:51:00,39.1,31.5,29.95,South,183,1.1,1.1,73,0.00,,,0.00,0,TxWx,2013-02-06 04:51:00,
2013-02-05 23:52:00,39.1,31.5,29.95,SW,222,1.1,1.1,73,0.00,,,0.00,0,TxWx,2013-02-06 04:52:00,
2013-02-05 23:55:00,39.0,31.4,29.95,SSW,204,1.1,1.1,74,0.00,,,0.00,0,TxWx,2013-02-06 04:55:00,
2013-02-05 23:56:00,38.7,31.4,29.96,SE,133,2.6,2.6,74,0.00,,,0.00,0,TxWx,2013-02-06 04:56:00,
2013-02-05 23:57:00,38.7,31.4,29.96,SSE,162,1.9,1.9,74,0.00,,,0.00,0,TxWx,2013-02-06 04:57:00,